M I D A S
Marine Information and Data Acquisition System
Tripno 1085 of the Zeeleeuw from 2006-05-17 11:36:38 to 2006-05-17 14:26:43
Back to CruiseResearch ActivitiesStationsMapUnderway DataData graphs

EquipmentUnitsComment
TimeDGPSUTC
LatitudeDGPSDM.mWGS84
LongitudeDGPSDM.mWGS84
TemperatureSBE03/SBE38deg celciusITS90
ConductivitySBE21S/mITS90
SalinitySBE21 Practical Salinity Units
ChlorophylAChelsea fluorimeterg/lCalibrated in Aceton
Missing or incorrect values are displayed as -999
Sea surface data collected by the RV Zeeleeuw from 2006-05-17 07:17:38 to 2006-05-17 14:41:29
                                                                                    Next 1000 lines
Time Latitude Longitude Temperature Conductivity Salinity ChlorophylA
2006-05-17 07:17:48 51°13.603 2°56.099 20.7557 0.060212 0.312222 20.927606
2006-05-17 07:17:54 51°13.603 2°56.099 20.741 0.060212 0.312217 20.961315
2006-05-17 07:17:58 51°13.603 2°56.099 20.7376 0.060212 0.312217 20.961315
2006-05-17 07:18:03 51°13.603 2°56.099 20.7388 0.060212 0.312222 20.961315
2006-05-17 07:18:08 51°13.603 2°56.099 20.7419 0.060212 0.312217 20.927606
2006-05-17 07:18:14 51°13.603 2°56.099 20.7464 0.060212 0.312217 20.927606
2006-05-17 07:18:18 51°13.603 2°56.099 20.7463 0.060212 0.312222 20.927606
2006-05-17 07:18:23 51°13.603 2°56.099 20.7456 0.060212 0.312222 20.927606
2006-05-17 07:18:28 51°13.603 2°56.099 20.7448 0.060212 0.312226 20.961315
2006-05-17 07:18:33 51°13.603 2°56.099 20.7448 0.060212 0.312226 20.927606
2006-05-17 07:18:38 51°13.603 2°56.099 20.7449 0.060212 0.312231 20.893896
2006-05-17 07:18:44 51°13.603 2°56.099 20.7458 0.060212 0.312222 20.961315
2006-05-17 07:18:49 51°13.603 2°56.099 20.7468 0.060212 0.312222 20.961315
2006-05-17 07:18:53 51°13.603 2°56.099 20.7469 0.060212 0.312208 20.927606
2006-05-17 07:18:58 51°13.603 2°56.099 20.7472 0.060212 0.312203 20.927606
2006-05-17 07:19:04 51°13.603 2°56.099 20.747 0.060212 0.312203 20.893896
2006-05-17 07:19:08 51°13.603 2°56.099 20.7476 0.060212 0.312212 20.927606
2006-05-17 07:19:12 51°13.603 2°56.099 20.7482 0.060212 0.312222 20.927606
2006-05-17 07:19:18 51°13.603 2°56.099 20.749 0.060212 0.312222 20.927606
2006-05-17 07:19:24 51°13.603 2°56.099 20.749 0.060212 0.312236 20.961315
2006-05-17 07:19:27 51°13.603 2°56.099 20.7501 0.060212 0.312245 20.927606
2006-05-17 07:19:34 51°13.603 2°56.099 20.7503 0.060212 0.31225 20.893896
2006-05-17 07:19:38 51°13.603 2°56.099 20.748 0.060212 0.31225 20.927606
2006-05-17 07:19:43 51°13.603 2°56.099 20.7502 0.060212 0.312245 20.893896
2006-05-17 07:19:48 51°13.603 2°56.099 20.7498 0.060212 0.312236 20.927606
2006-05-17 07:19:54 51°13.603 2°56.099 20.7519 0.060212 0.312236 20.927606
2006-05-17 07:19:58 51°13.603 2°56.099 20.7524 0.060212 0.312231 20.927606
2006-05-17 07:20:04 51°13.603 2°56.099 20.7551 0.060212 0.312231 20.893896
2006-05-17 07:20:09 51°13.603 2°56.099 20.7536 0.060212 0.312226 20.893896
2006-05-17 07:20:14 51°13.603 2°56.099 20.7542 0.060212 0.312231 20.893896
2006-05-17 07:20:19 51°13.603 2°56.099 20.7531 0.060212 0.312231 20.927606
2006-05-17 07:20:24 51°13.603 2°56.099 20.7534 0.060212 0.312231 20.927606
2006-05-17 07:20:29 51°13.603 2°56.099 20.7563 0.060212 0.312236 20.927606
2006-05-17 07:20:34 51°13.603 2°56.099 20.7595 0.060212 0.312236 20.893896
2006-05-17 07:20:38 51°13.603 2°56.099 20.7592 0.060212 0.31224 20.893896
2006-05-17 07:20:44 51°13.604 2°56.099 20.7584 0.060212 0.312245 20.893896
2006-05-17 07:20:49 51°13.604 2°56.098 20.7585 0.060212 0.312245 20.893896
2006-05-17 07:20:54 51°13.604 2°56.098 20.7574 0.060212 0.312245 20.893896
2006-05-17 07:20:59 51°13.603 2°56.098 20.7595 0.060212 0.31224 20.893896
2006-05-17 07:21:04 51°13.603 2°56.098 20.7627 0.060212 0.31224 20.893896
2006-05-17 07:21:08 51°13.603 2°56.098 20.7635 0.060212 0.31224 20.893896
2006-05-17 07:21:13 51°13.603 2°56.098 20.7627 0.060212 0.312245 20.927606
2006-05-17 07:21:18 51°13.603 2°56.098 20.7634 0.060212 0.312245 20.927606
2006-05-17 07:21:24 51°13.603 2°56.098 20.7634 0.060212 0.312245 20.927606
2006-05-17 07:21:28 51°13.603 2°56.098 20.7656 0.060212 0.312245 20.893896
2006-05-17 07:21:34 51°13.603 2°56.098 20.7685 0.060212 0.31225 20.860187
2006-05-17 07:21:38 51°13.603 2°56.098 20.768 0.060212 0.31225 20.893896
2006-05-17 07:21:44 51°13.603 2°56.098 20.765 0.060212 0.312245 20.893896
2006-05-17 07:21:49 51°13.603 2°56.098 20.7648 0.060212 0.312245 20.893896
2006-05-17 07:21:54 51°13.603 2°56.098 20.7639 0.060212 0.31225 20.893896
2006-05-17 07:21:58 51°13.603 2°56.098 20.7666 0.060212 0.31225 20.893896
2006-05-17 07:22:03 51°13.603 2°56.098 20.7704 0.060212 0.312245 20.893896
2006-05-17 07:22:09 51°13.603 2°56.098 20.7664 0.060212 0.31225 20.893896
2006-05-17 07:22:14 51°13.603 2°56.098 20.7664 0.060212 0.312254 20.860187
2006-05-17 07:22:18 51°13.603 2°56.098 20.7609 0.060212 0.312254 20.860187
2006-05-17 07:22:23 51°13.603 2°56.098 20.7636 0.060212 0.312254 20.860187
2006-05-17 07:22:28 51°13.603 2°56.098 20.7653 0.060212 0.312254 20.893896
2006-05-17 07:22:34 51°13.603 2°56.098 20.7663 0.060212 0.312254 20.860187
2006-05-17 07:22:38 51°13.603 2°56.099 20.7679 0.060212 0.312259 20.893896
2006-05-17 07:22:42 51°13.603 2°56.098 20.7658 0.060212 0.312259 20.860187
2006-05-17 07:22:48 51°13.603 2°56.098 20.7658 0.060212 0.312259 20.860187
2006-05-17 07:22:54 51°13.603 2°56.099 20.7662 0.060212 0.312259 20.893896
2006-05-17 07:22:58 51°13.603 2°56.099 20.7677 0.060212 0.312259 20.893896
2006-05-17 07:23:04 51°13.603 2°56.099 20.7678 0.060212 0.312259 20.860187
2006-05-17 07:23:08 51°13.603 2°56.099 20.7661 0.060212 0.312259 20.860187
2006-05-17 07:23:13 51°13.603 2°56.099 20.7667 0.060212 0.312259 20.860187
2006-05-17 07:23:18 51°13.603 2°56.099 20.7662 0.060212 0.312259 20.860187
2006-05-17 07:23:23 51°13.603 2°56.099 20.7661 0.060212 0.312259 20.860187
2006-05-17 07:23:27 51°13.603 2°56.098 20.7663 0.060212 0.312264 20.860187
2006-05-17 07:23:33 51°13.603 2°56.098 20.7639 0.060212 0.312264 20.893896
2006-05-17 07:23:38 51°13.603 2°56.098 20.7641 0.060212 0.312268 20.860187
2006-05-17 07:23:44 51°13.603 2°56.098 20.7647 0.060212 0.312264 20.860187
2006-05-17 07:23:48 51°13.603 2°56.098 20.7677 0.060212 0.312264 20.860187
2006-05-17 07:23:54 51°13.603 2°56.098 20.7697 0.060212 0.312264 20.860187
2006-05-17 07:23:58 51°13.603 2°56.098 20.7728 0.060212 0.312268 20.860187
2006-05-17 07:24:02 51°13.603 2°56.099 20.776 0.060212 0.312264 20.860187
2006-05-17 07:24:08 51°13.603 2°56.099 20.7724 0.060212 0.312273 20.826477
2006-05-17 07:24:14 51°13.603 2°56.099 20.7737 0.060212 0.312268 20.893896
2006-05-17 07:24:18 51°13.603 2°56.099 20.7797 0.060212 0.312268 20.893896
2006-05-17 07:24:24 51°13.603 2°56.099 20.7815 0.060212 0.312268 20.860187
2006-05-17 07:24:28 51°13.603 2°56.099 20.7797 0.060212 0.312273 20.860187
2006-05-17 07:24:32 51°13.603 2°56.099 20.7768 0.060212 0.312273 20.860187
2006-05-17 07:24:39 51°13.603 2°56.099 20.7763 0.060212 0.312268 20.860187
2006-05-17 07:24:44 51°13.603 2°56.099 20.7715 0.060212 0.312264 20.860187
2006-05-17 07:24:48 51°13.603 2°56.099 20.7735 0.060212 0.312264 20.860187
2006-05-17 07:24:54 51°13.603 2°56.099 20.7773 0.060212 0.312273 20.860187
2006-05-17 07:24:58 51°13.603 2°56.099 20.7803 0.060212 0.312273 20.860187
2006-05-17 07:25:03 51°13.603 2°56.099 20.8112 0.060212 0.312273 20.860187
2006-05-17 07:25:08 51°13.603 2°56.099 20.8173 0.060212 0.312273 20.792768
2006-05-17 07:25:14 51°13.603 2°56.099 20.8284 0.060212 0.312282 20.826477
2006-05-17 07:25:18 51°13.603 2°56.099 20.8235 0.060212 0.312278 20.826477
2006-05-17 07:25:24 51°13.603 2°56.099 20.8251 0.060212 0.312278 20.826477
2006-05-17 07:25:28 51°13.603 2°56.099 20.8278 0.060212 0.312278 20.826477
2006-05-17 07:25:33 51°13.603 2°56.099 20.8284 0.060212 0.312273 20.826477
2006-05-17 07:25:38 51°13.603 2°56.099 20.8313 0.060212 0.312268 20.826477
2006-05-17 07:25:44 51°13.602 2°56.099 20.8365 0.060212 0.312268 20.860187
2006-05-17 07:25:48 51°13.602 2°56.099 20.8398 0.060212 0.312268 20.860187
2006-05-17 07:25:53 51°13.602 2°56.099 20.8367 0.060212 0.312273 20.826477
2006-05-17 07:25:58 51°13.602 2°56.099 20.8291 0.060212 0.312282 20.860187
2006-05-17 07:26:03 51°13.602 2°56.099 20.8267 0.060212 0.312287 20.792768
2006-05-17 07:26:08 51°13.602 2°56.099 20.8253 0.060212 0.312292 20.792768
2006-05-17 07:26:14 51°13.602 2°56.099 20.8265 0.060212 0.312287 20.826477
2006-05-17 07:26:18 51°13.602 2°56.099 20.825 0.060212 0.312287 20.826477
2006-05-17 07:26:23 51°13.602 2°56.099 20.825 0.060212 0.312292 20.792768
2006-05-17 07:26:28 51°13.602 2°56.098 20.8236 0.060212 0.312287 20.792768
2006-05-17 07:26:33 51°13.601 2°56.098 20.8239 0.060212 0.312287 20.792768
2006-05-17 07:26:38 51°13.601 2°56.098 20.8219 0.060212 0.312287 20.792768
2006-05-17 07:26:41 51°13.601 2°56.098 20.8171 0.060212 0.312292 20.826477
2006-05-17 07:26:47 51°13.601 2°56.098 20.7239 0.060212 0.312292 20.792768
2006-05-17 07:26:53 51°13.601 2°56.098 20.7089 0.060212 0.312292 20.792768
2006-05-17 07:26:58 51°13.601 2°56.097 20.6995 0.060212 0.312292 20.792768
2006-05-17 07:27:03 51°13.601 2°56.097 20.6502 0.060212 0.312287 20.792768
2006-05-17 07:27:08 51°13.602 2°56.095 20.6899 0.060212 0.312287 20.826477
2006-05-17 07:27:13 51°13.602 2°56.093 20.7282 0.060212 0.312292 20.792768
2006-05-17 07:27:18 51°13.603 2°56.09 20.7408 0.060212 0.312278 20.792768
2006-05-17 07:27:23 51°13.604 2°56.086 20.7789 0.060212 0.312278 20.792768
2006-05-17 07:27:29 51°13.605 2°56.081 20.7094 0.060212 0.312268 20.792768
2006-05-17 07:27:34 51°13.606 2°56.076 20.7508 0.060212 0.312268 20.792768
2006-05-17 07:27:39 51°13.607 2°56.071 20.7587 0.060212 0.312273 20.759059
2006-05-17 07:27:44 51°13.608 2°56.065 20.7757 0.060212 0.312273 20.792768
2006-05-17 07:27:49 51°13.609 2°56.059 20.7576 0.060212 0.312273 20.792768
2006-05-17 07:27:54 51°13.611 2°56.053 20.7479 0.060212 0.312282 20.759059
2006-05-17 07:27:59 51°13.612 2°56.046 20.7892 0.060212 0.312287 20.792768
2006-05-17 07:28:04 51°13.614 2°56.039 20.7577 0.060212 0.312296 20.792768
2006-05-17 07:28:09 51°13.615 2°56.031 20.7834 0.060212 0.312301 20.792768
2006-05-17 07:28:14 51°13.617 2°56.024 20.8027 0.060212 0.312306 20.759059
2006-05-17 07:28:19 51°13.619 2°56.016 20.8085 0.060212 0.312306 20.759059
2006-05-17 07:28:24 51°13.62 2°56.008 20.8363 0.060212 0.312306 20.792768
2006-05-17 07:28:29 51°13.622 2°55.999 20.8365 0.060212 0.312306 20.792768
2006-05-17 07:28:34 51°13.624 2°55.991 20.8348 0.060212 0.312296 20.759059
2006-05-17 07:28:38 51°13.625 2°55.985 20.817 0.060212 0.312287 20.792768
2006-05-17 07:28:44 51°13.628 2°55.975 20.8008 0.060212 0.312282 20.759059
2006-05-17 07:28:49 51°13.63 2°55.968 20.8241 0.060212 0.312287 20.792768
2006-05-17 07:28:54 51°13.632 2°55.96 20.7975 0.060212 0.312287 20.792768
2006-05-17 07:28:59 51°13.634 2°55.953 20.8047 0.060212 0.312292 20.759059
2006-05-17 07:29:04 51°13.636 2°55.945 20.8077 0.060212 0.312296 20.792768
2006-05-17 07:29:09 51°13.639 2°55.938 20.8023 0.060212 0.312306 20.759059
2006-05-17 07:29:14 51°13.641 2°55.93 20.8026 0.060212 0.312315 20.759059
2006-05-17 07:29:19 51°13.644 2°55.923 20.8024 0.060212 0.312315 20.759059
2006-05-17 07:29:24 51°13.646 2°55.916 20.8351 0.060212 0.31232 20.792768
2006-05-17 07:29:29 51°13.649 2°55.908 20.8423 0.060212 0.31232 20.759059
2006-05-17 07:29:34 51°13.652 2°55.901 20.8309 0.060212 0.312315 20.759059
2006-05-17 07:29:39 51°13.655 2°55.894 20.832 0.060212 0.31231 20.725349
2006-05-17 07:29:44 51°13.658 2°55.886 20.8341 0.060212 0.31231 20.759059
2006-05-17 07:29:49 51°13.661 2°55.879 20.8351 0.060212 0.31231 20.759059
2006-05-17 07:29:54 51°13.664 2°55.872 20.8316 0.060212 0.31231 20.759059
2006-05-17 07:29:59 51°13.667 2°55.865 20.8257 0.060212 0.312306 20.759059
2006-05-17 07:30:04 51°13.67 2°55.857 20.8146 0.060212 0.312306 20.759059
2006-05-17 07:30:09 51°13.673 2°55.85 20.8163 0.060212 0.31231 20.759059
2006-05-17 07:30:14 51°13.676 2°55.842 20.8092 0.060212 0.312315 20.725349
2006-05-17 07:30:19 51°13.68 2°55.835 20.7926 0.060212 0.31231 20.759059
2006-05-17 07:30:24 51°13.683 2°55.827 20.834 0.060212 0.31231 20.759059
2006-05-17 07:30:29 51°13.687 2°55.82 20.8156 0.060212 0.312315 20.725349
2006-05-17 07:30:34 51°13.691 2°55.813 20.8066 0.060212 0.312315 20.759059
2006-05-17 07:30:39 51°13.694 2°55.806 20.7959 0.060212 0.312315 20.759059
2006-05-17 07:30:44 51°13.697 2°55.799 20.7549 0.060212 0.31231 20.759059
2006-05-17 07:30:49 51°13.699 2°55.793 20.7745 0.060212 0.312315 20.725349
2006-05-17 07:30:54 51°13.702 2°55.786 20.7831 0.060212 0.312315 20.725349
2006-05-17 07:30:58 51°13.704 2°55.781 20.8128 0.060212 0.31232 20.725349
2006-05-17 07:31:03 51°13.707 2°55.775 20.823 0.060212 0.312315 20.725349
2006-05-17 07:31:08 51°13.709 2°55.768 20.8287 0.060212 0.31232 20.725349
2006-05-17 07:31:14 51°13.711 2°55.761 20.7996 0.060212 0.31232 20.759059
2006-05-17 07:31:19 51°13.713 2°55.756 20.8097 0.060212 0.31232 20.759059
2006-05-17 07:31:24 51°13.715 2°55.752 20.8112 0.060212 0.312315 20.725349
2006-05-17 07:31:29 51°13.716 2°55.748 20.8262 0.060212 0.31232 20.725349
2006-05-17 07:31:34 51°13.717 2°55.745 20.8278 0.060212 0.312315 20.725349
2006-05-17 07:31:38 51°13.718 2°55.743 20.8326 0.060212 0.31232 20.725349
2006-05-17 07:31:44 51°13.719 2°55.742 20.8437 0.060212 0.31232 20.69164
2006-05-17 07:31:48 51°13.719 2°55.742 20.8676 0.060212 0.31232 20.69164
2006-05-17 07:31:54 51°13.72 2°55.743 20.9088 0.060212 0.31232 20.69164
2006-05-17 07:31:59 51°13.72 2°55.744 20.8914 0.060212 0.312324 20.725349
2006-05-17 07:32:04 51°13.721 2°55.746 20.9197 0.060212 0.312329 20.725349
2006-05-17 07:32:08 51°13.722 2°55.748 20.9049 0.060212 0.312329 20.69164
2006-05-17 07:32:13 51°13.723 2°55.751 20.8103 0.060212 0.312334 20.725349
2006-05-17 07:32:19 51°13.725 2°55.755 20.6598 0.060212 0.312343 20.69164
2006-05-17 07:32:23 51°13.726 2°55.756 20.6886 0.060212 0.312343 20.69164
2006-05-17 07:32:28 51°13.727 2°55.757 20.7639 0.060212 0.312334 20.725349
2006-05-17 07:32:33 51°13.727 2°55.757 20.5822 0.060212 0.312324 20.725349
2006-05-17 07:32:38 51°13.727 2°55.756 20.809 0.060212 0.31231 20.69164
2006-05-17 07:32:42 51°13.726 2°55.754 20.8077 0.060212 0.312296 20.65793
2006-05-17 07:32:48 51°13.725 2°55.752 20.7966 0.060212 0.312292 20.725349
2006-05-17 07:32:53 51°13.723 2°55.749 20.7685 0.060212 0.312292 20.725349
2006-05-17 07:32:59 51°13.721 2°55.746 20.7334 0.060212 0.312292 20.69164
2006-05-17 07:33:04 51°13.719 2°55.744 20.824 0.060212 0.312306 20.65793
2006-05-17 07:33:09 51°13.717 2°55.741 20.8281 0.060212 0.31232 20.65793
2006-05-17 07:33:14 51°13.715 2°55.739 20.8416 0.060212 0.312339 20.69164
2006-05-17 07:33:19 51°13.713 2°55.737 20.8217 0.060212 0.312339 20.69164
2006-05-17 07:33:24 51°13.712 2°55.735 20.8215 0.060212 0.312343 20.65793
2006-05-17 07:33:29 51°13.711 2°55.734 20.8285 0.060212 0.312348 20.65793
2006-05-17 07:33:34 51°13.711 2°55.733 20.874 0.060212 0.312343 20.65793
2006-05-17 07:33:39 51°13.712 2°55.733 20.8982 0.060212 0.312339 20.65793
2006-05-17 07:33:44 51°13.714 2°55.733 20.9017 0.060212 0.312329 20.65793
2006-05-17 07:33:49 51°13.716 2°55.732 20.899 0.060212 0.312329 20.65793
2006-05-17 07:33:54 51°13.718 2°55.731 20.8936 0.060212 0.312329 20.65793
2006-05-17 07:33:59 51°13.721 2°55.73 20.8813 0.060212 0.312329 20.624221
2006-05-17 07:34:04 51°13.723 2°55.729 20.8664 0.060212 0.312334 20.65793
2006-05-17 07:34:09 51°13.727 2°55.727 20.8767 0.060212 0.312334 20.65793
2006-05-17 07:34:14 51°13.73 2°55.724 20.8689 0.060212 0.312343 20.624221
2006-05-17 07:34:18 51°13.733 2°55.721 20.8611 0.060212 0.312339 20.624221
2006-05-17 07:34:23 51°13.737 2°55.717 20.8536 0.060212 0.312339 20.624221
2006-05-17 07:34:28 51°13.742 2°55.713 20.8457 0.060212 0.312339 20.590512
2006-05-17 07:34:33 51°13.747 2°55.708 20.8239 0.060212 0.312334 20.624221
2006-05-17 07:34:38 51°13.752 2°55.703 20.792 0.060212 0.312324 20.624221
2006-05-17 07:34:44 51°13.759 2°55.696 20.7613 0.060212 0.312315 20.624221
2006-05-17 07:34:48 51°13.764 2°55.691 20.7671 0.060212 0.312315 20.624221
2006-05-17 07:34:53 51°13.771 2°55.685 20.7309 0.060212 0.31232 20.624221
2006-05-17 07:34:58 51°13.777 2°55.679 20.7465 0.060212 0.312324 20.624221
2006-05-17 07:35:03 51°13.784 2°55.672 20.7528 0.060212 0.312334 20.590512
2006-05-17 07:35:08 51°13.791 2°55.665 20.7406 0.060212 0.312339 20.624221
2006-05-17 07:35:13 51°13.798 2°55.659 20.7482 0.060212 0.312348 20.624221
2006-05-17 07:35:18 51°13.806 2°55.653 20.7452 0.060212 0.312348 20.624221
2006-05-17 07:35:24 51°13.815 2°55.645 20.7466 0.060212 0.312348 20.624221
2006-05-17 07:35:28 51°13.821 2°55.639 20.73 0.060212 0.312353 20.590512
2006-05-17 07:35:33 51°13.829 2°55.632 20.6963 0.060212 0.312348 20.590512
2006-05-17 07:35:38 51°13.837 2°55.625 20.6684 0.060212 0.312353 20.624221
2006-05-17 07:35:43 51°13.845 2°55.618 20.6609 0.060212 0.312348 20.624221
2006-05-17 07:35:48 51°13.852 2°55.611 20.6649 0.060212 0.312348 20.65793
2006-05-17 07:35:54 51°13.862 2°55.603 20.6797 0.060212 0.312348 20.65793
2006-05-17 07:35:57 51°13.866 2°55.599 20.6704 0.060212 0.312353 20.590512
2006-05-17 07:36:02 51°13.873 2°55.592 20.7003 0.060212 0.312357 20.624221
2006-05-17 07:36:08 51°13.882 2°55.585 20.7206 0.060212 0.312362 20.624221
2006-05-17 07:36:14 51°13.892 2°55.578 20.74 0.060212 0.312367 20.624221
2006-05-17 07:36:18 51°13.898 2°55.574 20.7473 0.060212 0.312367 20.624221
2006-05-17 07:36:23 51°13.905 2°55.568 20.7572 0.060212 0.312367 20.624221
2006-05-17 07:36:28 51°13.912 2°55.562 20.763 0.060212 0.312367 20.590512
2006-05-17 07:36:33 51°13.92 2°55.557 20.7617 0.060212 0.312362 20.590512
2006-05-17 07:36:38 51°13.927 2°55.552 20.7594 0.060212 0.312362 20.624221
2006-05-17 07:36:44 51°13.936 2°55.546 20.7657 0.060212 0.312362 20.590512
2006-05-17 07:36:48 51°13.941 2°55.542 20.7786 0.060212 0.312362 20.590512
2006-05-17 07:36:53 51°13.949 2°55.538 20.7957 0.060212 0.312357 20.590512
2006-05-17 07:36:58 51°13.956 2°55.533 20.7991 0.060212 0.312357 20.590512
2006-05-17 07:37:03 51°13.963 2°55.528 20.8008 0.060212 0.312357 20.590512
2006-05-17 07:37:08 51°13.97 2°55.524 20.8016 0.060212 0.312357 20.590512
2006-05-17 07:37:12 51°13.976 2°55.519 20.8008 0.060212 0.312362 20.556802
2006-05-17 07:37:17 51°13.982 2°55.515 20.8091 0.060212 0.312362 20.556802
2006-05-17 07:37:24 51°13.992 2°55.507 20.8172 0.060212 0.312362 20.556802
2006-05-17 07:37:28 51°13.997 2°55.503 20.8328 0.060212 0.312367 20.590512
2006-05-17 07:37:33 51°14.004 2°55.498 20.8141 0.060212 0.312371 20.590512
2006-05-17 07:37:38 51°14.011 2°55.493 20.8026 0.060212 0.312367 20.556802
2006-05-17 07:37:44 51°14.019 2°55.487 20.7998 0.060212 0.312367 20.556802
2006-05-17 07:37:48 51°14.025 2°55.483 20.8052 0.060212 0.312367 20.556802
2006-05-17 07:37:53 51°14.032 2°55.477 20.8066 0.060212 0.312367 20.556802
2006-05-17 07:37:58 51°14.039 2°55.472 20.8046 0.060212 0.312367 20.523093
2006-05-17 07:38:03 51°14.047 2°55.467 20.7144 0.060212 0.312367 20.556802
2006-05-17 07:38:08 51°14.055 2°55.462 20.7755 0.060212 0.312367 20.556802
2006-05-17 07:38:14 51°14.065 2°55.456 20.777 0.060212 0.312362 20.556802
2006-05-17 07:38:17 51°14.07 2°55.452 20.785 0.060212 0.312362 20.556802
2006-05-17 07:38:23 51°14.08 2°55.446 20.7852 0.060212 0.312367 20.556802
2006-05-17 07:38:28 51°14.089 2°55.44 20.7761 0.060212 0.312371 20.523093
2006-05-17 07:38:33 51°14.098 2°55.434 20.778 0.060212 0.312371 20.556802
2006-05-17 07:38:38 51°14.107 2°55.428 20.7883 0.060212 0.312371 20.556802
2006-05-17 07:38:43 51°14.116 2°55.422 20.7665 0.060212 0.312376 20.556802
2006-05-17 07:38:48 51°14.125 2°55.415 20.7983 0.060212 0.312376 20.556802
2006-05-17 07:38:54 51°14.136 2°55.406 20.8029 0.060212 0.312376 20.523093
2006-05-17 07:38:58 51°14.145 2°55.401 20.8053 0.060212 0.312376 20.523093
2006-05-17 07:39:04 51°14.156 2°55.392 20.8068 0.060212 0.312381 20.556802
2006-05-17 07:39:08 51°14.164 2°55.386 20.806 0.060212 0.312376 20.556802
2006-05-17 07:39:13 51°14.173 2°55.377 20.8027 0.060212 0.312381 20.523093
2006-05-17 07:39:18 51°14.183 2°55.369 20.8026 0.060212 0.312381 20.523093
2006-05-17 07:39:23 51°14.192 2°55.361 20.8031 0.060212 0.312381 20.523093
2006-05-17 07:39:28 51°14.202 2°55.351 20.8243 0.060212 0.312381 20.556802
2006-05-17 07:39:34 51°14.213 2°55.34 20.8715 0.060212 0.312381 20.523093
2006-05-17 07:39:38 51°14.22 2°55.331 20.8797 0.060212 0.312385 20.523093
2006-05-17 07:39:44 51°14.231 2°55.318 20.8634 0.060212 0.312385 20.489383
2006-05-17 07:39:48 51°14.238 2°55.308 20.8584 0.060212 0.312385 20.489383
2006-05-17 07:39:54 51°14.248 2°55.293 20.8449 0.060212 0.31239 20.489383
2006-05-17 07:39:58 51°14.255 2°55.283 20.8442 0.060212 0.31239 20.523093
2006-05-17 07:40:03 51°14.263 2°55.269 20.8393 0.060212 0.31239 20.489383
2006-05-17 07:40:08 51°14.271 2°55.255 20.8426 0.060212 0.31239 20.489383
2006-05-17 07:40:13 51°14.279 2°55.241 20.7624 0.060212 0.312395 20.489383
2006-05-17 07:40:18 51°14.287 2°55.225 20.7991 0.060212 0.312395 20.489383
2006-05-17 07:40:22 51°14.293 2°55.213 20.7643 0.060212 0.31239 20.489383
2006-05-17 07:40:28 51°14.302 2°55.194 20.7617 0.060212 0.31239 20.489383
2006-05-17 07:40:33 51°14.309 2°55.178 20.793 0.060212 0.312395 20.489383
2006-05-17 07:40:38 51°14.316 2°55.162 20.7777 0.060212 0.31239 20.489383
2006-05-17 07:40:44 51°14.325 2°55.142 20.7505 0.060212 0.31239 20.489383
2006-05-17 07:40:48 51°14.33 2°55.129 20.7176 0.060212 0.312395 20.455674
2006-05-17 07:40:53 51°14.337 2°55.112 20.7127 0.060212 0.312395 20.455674
2006-05-17 07:40:58 51°14.345 2°55.095 20.7519 0.060212 0.312395 20.489383
2006-05-17 07:41:01 51°14.349 2°55.085 18.8086 0.060212 0.312395 20.455674
2006-05-17 07:41:07 51°14.357 2°55.065 17.1018 0.060316 0.312126 20.455674
2006-05-17 07:41:14 51°14.367 2°55.042 16.1253 0.15113 0.812161 15.972324
2006-05-17 07:41:18 51°14.373 2°55.029 15.6125 0.185339 1.00636 17.354409
2006-05-17 07:41:23 51°14.38 2°55.011 15.2819 0.185339 1.00636 17.354409
2006-05-17 07:41:28 51°14.387 2°54.994 15.0453 0.358946 1.99364 10.915913
2006-05-17 07:41:33 51°14.393 2°54.976 14.9396 0.399993 2.263336 12.533965
2006-05-17 07:41:38 51°14.399 2°54.958 14.8003 0.81741 5.034239 11.151879
2006-05-17 07:41:43 51°14.404 2°54.939 14.7515 1.209147 7.935333 13.34299
2006-05-17 07:41:48 51°14.41 2°54.919 14.6907 2.216485 15.728202 13.208153
2006-05-17 07:41:53 51°14.415 2°54.899 14.6162 2.216485 15.728202 13.208153
2006-05-17 07:41:58 51°14.421 2°54.878 14.5722 3.6556 27.884952 12.904768
2006-05-17 07:42:04 51°14.427 2°54.853 14.5274 3.773501 29.439638 12.601383
2006-05-17 07:42:08 51°14.432 2°54.835 14.4924 3.806907 30.034251 12.264289
2006-05-17 07:42:13 51°14.438 2°54.813 14.4894 3.79142 30.068127 11.927195
2006-05-17 07:42:18 51°14.443 2°54.789 14.4236 3.79142 30.068127 11.927195
2006-05-17 07:42:23 51°14.448 2°54.766 14.4369 3.830515 30.588733 11.556392
2006-05-17 07:42:27 51°14.452 2°54.746 14.3971 3.828198 30.667047 11.286717
2006-05-17 07:42:33 51°14.458 2°54.715 14.3575 3.822404 30.72375 11.050751
2006-05-17 07:42:38 51°14.462 2°54.689 14.3467 3.824829 30.797265 10.915913
2006-05-17 07:42:43 51°14.466 2°54.663 14.3272 3.833365 30.930711 10.747366
2006-05-17 07:42:47 51°14.47 2°54.641 14.347 3.817244 30.82733 10.679947
2006-05-17 07:42:51 51°14.474 2°54.62 14.3232 3.817244 30.82733 10.679947
2006-05-17 07:42:58 51°14.481 2°54.582 14.2847 3.844325 31.11802 10.5114
2006-05-17 07:43:03 51°14.486 2°54.555 14.2809 3.864451 31.332401 10.342853
2006-05-17 07:43:08 51°14.492 2°54.528 14.2302 3.871934 31.445369 10.208016
2006-05-17 07:43:13 51°14.497 2°54.5 14.2292 3.873515 31.475664 10.039469
2006-05-17 07:43:18 51°14.503 2°54.472 14.1957 3.873515 31.475664 10.039469
2006-05-17 07:43:23 51°14.509 2°54.444 14.1678 3.888584 31.62937 9.870922
2006-05-17 07:43:28 51°14.515 2°54.416 14.1456 3.889638 31.657511 9.702375
2006-05-17 07:43:33 51°14.521 2°54.388 14.1414 3.917985 31.938379 9.567537
2006-05-17 07:43:38 51°14.528 2°54.36 14.1262 3.940853 32.160658 9.466409
2006-05-17 07:43:42 51°14.533 2°54.337 14.0974 3.949285 32.270277 9.365281
2006-05-17 07:43:48 51°14.541 2°54.303 14.0878 3.974051 32.515094 9.365281
2006-05-17 07:43:53 51°14.548 2°54.275 14.0849 3.974051 32.515094 9.365281
2006-05-17 07:43:58 51°14.555 2°54.246 14.0923 3.974999 32.553836 9.264153
2006-05-17 07:44:04 51°14.563 2°54.213 14.0798 3.996499 32.783786 9.230443
2006-05-17 07:44:07 51°14.568 2°54.196 14.0787 3.994392 32.77872 9.129315
2006-05-17 07:44:14 51°14.578 2°54.156 14.0833 3.99787 32.829974 9.095606
2006-05-17 07:44:18 51°14.584 2°54.134 14.082 3.99787 32.829974 9.095606
2006-05-17 07:44:22 51°14.59 2°54.112 14.083 4.000821 32.879714 9.061896
2006-05-17 07:44:28 51°14.598 2°54.078 14.0778 4.018106 33.053206 9.028187
2006-05-17 07:44:33 51°14.606 2°54.05 14.0756 4.017684 33.057832 8.960768
2006-05-17 07:44:38 51°14.613 2°54.021 14.0781 4.015787 33.043033 8.893349
2006-05-17 07:44:42 51°14.618 2°53.999 14.0807 4.032123 33.202215 8.85964
2006-05-17 07:44:48 51°14.626 2°53.964 14.0756 4.014417 33.043525 8.792221
2006-05-17 07:44:52 51°14.631 2°53.941 14.0775 4.014417 33.043525 8.792221
2006-05-17 07:44:57 51°14.637 2°53.912 14.0832 4.029278 33.18198 8.724802
2006-05-17 07:45:04 51°14.645 2°53.871 14.0831 4.022743 33.124572 8.657383
2006-05-17 07:45:09 51°14.651 2°53.842 14.0871 4.02327 33.134002 8.623674
2006-05-17 07:45:13 51°14.656 2°53.819 14.082 4.009886 33.013674 8.522546
2006-05-17 07:45:18 51°14.662 2°53.79 14.0769 4.009886 33.013674 8.522546
2006-05-17 07:45:24 51°14.669 2°53.755 14.0724 3.973421 32.682936 8.488836
2006-05-17 07:45:28 51°14.673 2°53.732 14.0757 4.02327 33.141216 8.455127
2006-05-17 07:45:34 51°14.681 2°53.697 14.0664 4.002508 32.952456 8.488836
2006-05-17 07:45:38 51°14.685 2°53.675 14.064 3.988702 32.822471 8.421418
2006-05-17 07:45:42 51°14.69 2°53.652 14.0565 3.991231 32.844382 8.421418
2006-05-17 07:45:48 51°14.698 2°53.618 14.0644 3.991231 32.844382 8.421418
2006-05-17 07:45:53 51°14.705 2°53.59 14.0755 4.007356 32.992405 8.387708
2006-05-17 07:45:58 51°14.713 2°53.562 14.0482 4.00567 32.984102 8.421418
2006-05-17 07:46:04 51°14.722 2°53.529 14.0472 4.005038 32.982864 8.455127
2006-05-17 07:46:08 51°14.728 2°53.508 14.0335 4.007989 33.011279 8.421418
2006-05-17 07:46:13 51°14.736 2°53.48 14.0245 4.00957 33.028418 8.455127
2006-05-17 07:46:18 51°14.744 2°53.453 14.0191 4.010729 33.047577 8.488836
2006-05-17 07:46:22 51°14.75 2°53.431 14.0079 4.010729 33.047577 8.488836
2006-05-17 07:46:28 51°14.758 2°53.397 14.007 4.007673 33.016872 8.488836
2006-05-17 07:46:33 51°14.763 2°53.368 14.0066 4.00683 33.013048 8.522546
2006-05-17 07:46:37 51°14.766 2°53.344 14.0203 4.007357 33.026395 8.522546
2006-05-17 07:46:43 51°14.77 2°53.309 14.023 4.022428 33.174183 8.522546
2006-05-17 07:46:48 51°14.772 2°53.279 14.0374 4.026328 33.220601 8.589965
2006-05-17 07:46:53 51°14.772 2°53.249 14.0454 4.026328 33.220601 8.589965
2006-05-17 07:46:58 51°14.772 2°53.219 14.0471 4.028541 33.24625 8.556255
2006-05-17 07:47:03 51°14.771 2°53.189 14.0628 4.011573 33.099257 8.589965
2006-05-17 07:47:08 51°14.769 2°53.159 14.0616 4.011046 33.099004 8.556255
2006-05-17 07:47:13 51°14.767 2°53.129 14.0602 4.018213 33.161692 8.556255
2006-05-17 07:47:18 51°14.764 2°53.1 14.0602 4.008411 33.068191 8.522546
2006-05-17 07:47:22 51°14.762 2°53.076 14.0637 4.008411 33.068191 8.522546
2006-05-17 07:47:28 51°14.758 2°53.041 14.0628 3.982485 32.821283 8.556255
2006-05-17 07:47:34 51°14.754 2°53.005 14.0626 3.986911 32.856752 8.556255
2006-05-17 07:47:38 51°14.751 2°52.982 14.0602 3.9906 32.884135 8.556255
2006-05-17 07:47:43 51°14.747 2°52.952 14.0509 4.002825 32.992584 8.623674
2006-05-17 07:47:48 51°14.744 2°52.922 14.0395 4.002825 32.992584 8.623674
2006-05-17 07:47:54 51°14.739 2°52.887 14.0261 3.997345 32.94025 8.589965
2006-05-17 07:47:58 51°14.736 2°52.863 14.0151 3.994394 32.913132 8.623674
2006-05-17 07:48:02 51°14.734 2°52.839 14.0024 3.998188 32.946041 8.657383
2006-05-17 07:48:08 51°14.73 2°52.803 13.9948 4.005987 33.016417 8.691093
2006-05-17 07:48:13 51°14.727 2°52.773 13.9771 3.988703 32.859539 8.724802
2006-05-17 07:48:18 51°14.725 2°52.743 13.9535 3.990073 32.879944 8.758512
2006-05-17 07:48:24 51°14.723 2°52.706 13.9543 3.990073 32.879944 8.758512
2006-05-17 07:48:27 51°14.722 2°52.688 13.9388 4.00546 33.03252 8.758512
2006-05-17 07:48:33 51°14.721 2°52.652 13.9298 4.014208 33.122194 8.724802
2006-05-17 07:48:38 51°14.721 2°52.621 13.906 4.021691 33.204255 8.724802
2006-05-17 07:48:44 51°14.72 2°52.585 13.8967 4.027171 33.262003 8.758512
2006-05-17 07:48:48 51°14.72 2°52.56 13.8885 4.035498 33.349999 8.724802
2006-05-17 07:48:53 51°14.718 2°52.53 13.8964 4.035498 33.349999 8.724802
2006-05-17 07:48:58 51°14.717 2°52.5 13.8824 4.04414 33.448311 8.792221
2006-05-17 07:49:03 51°14.715 2°52.469 13.879 4.024537 33.276705 8.758512
2006-05-17 07:49:08 51°14.713 2°52.439 13.8728 4.042349 33.454382 8.758512
2006-05-17 07:49:13 51°14.709 2°52.409 13.875 4.035288 33.405122 8.792221
2006-05-17 07:49:18 51°14.706 2°52.379 13.8661 4.035288 33.405122 8.792221
2006-05-17 07:49:23 51°14.703 2°52.349 13.8732 4.0531 33.58108 8.792221
2006-05-17 07:49:28 51°14.699 2°52.32 13.8749 4.058791 33.641084 8.82593
2006-05-17 07:49:33 51°14.696 2°52.29 13.8755 4.0492 33.561059 8.792221
2006-05-17 07:49:38 51°14.692 2°52.26 13.8816 4.060372 33.669123 8.792221
2006-05-17 07:49:44 51°14.688 2°52.224 13.8742 4.050149 33.582545 8.82593
2006-05-17 07:49:48 51°14.686 2°52.2 13.8855 4.050149 33.582545 8.82593
2006-05-17 07:49:53 51°14.682 2°52.17 13.8817 4.041612 33.508898 8.792221
2006-05-17 07:49:58 51°14.679 2°52.14 13.8833 4.059846 33.67901 8.82593
2006-05-17 07:50:03 51°14.676 2°52.11 13.8882 4.057843 33.662481 8.82593
2006-05-17 07:50:08 51°14.672 2°52.08 13.89 4.057843 33.66181 8.82593
2006-05-17 07:50:14 51°14.669 2°52.044 13.8883 4.060583 33.68517 8.85964
2006-05-17 07:50:18 51°14.667 2°52.02 13.8977 4.063008 33.707619 8.85964
2006-05-17 07:50:23 51°14.665 2°51.989 13.9014 4.063008 33.707619 8.85964
2006-05-17 07:50:28 51°14.664 2°51.959 13.9102 4.062586 33.703043 8.893349
2006-05-17 07:50:33 51°14.663 2°51.929 13.9083 4.052995 33.610222 8.893349
2006-05-17 07:50:38 51°14.662 2°51.898 13.895 4.060267 33.676872 8.927059
2006-05-17 07:50:43 51°14.662 2°51.867 13.8777 4.059319 33.667418 8.893349
2006-05-17 07:50:49 51°14.661 2°51.831 13.8733 4.059319 33.667418 8.893349
2006-05-17 07:50:53 51°14.661 2°51.806 13.8747 4.057421 33.647844 8.960768
2006-05-17 07:50:58 51°14.661 2°51.775 13.8543 4.055419 33.624617 8.927059
2006-05-17 07:51:03 51°14.661 2°51.745 13.8467 4.042455 33.500006 8.893349
2006-05-17 07:51:08 51°14.66 2°51.714 13.839 4.049833 33.56624 8.85964
2006-05-17 07:51:13 51°14.659 2°51.683 13.8302 4.051203 33.584267 8.82593
2006-05-17 07:51:18 51°14.658 2°51.653 13.8328 4.051203 33.584267 8.82593
2006-05-17 07:51:24 51°14.655 2°51.616 13.8315 4.053838 33.616686 8.758512
2006-05-17 07:51:27 51°14.653 2°51.597 13.829 4.055314 33.640401 8.657383
2006-05-17 07:51:33 51°14.649 2°51.561 13.8314 4.063008 33.719719 8.623674
2006-05-17 07:51:38 51°14.645 2°51.531 13.8301 4.054576 33.650344 8.623674
2006-05-17 07:51:44 51°14.641 2°51.494 13.8339 4.06891 33.79193 8.623674
2006-05-17 07:51:49 51°14.637 2°51.464 13.8363 4.069543 33.805215 8.556255
2006-05-17 07:51:53 51°14.634 2°51.44 13.8383 4.069543 33.805215 8.556255
2006-05-17 07:51:58 51°14.629 2°51.409 13.8378 4.060584 33.724842 8.589965
2006-05-17 07:52:02 51°14.626 2°51.385 13.8377 4.07281 33.8443 8.556255
2006-05-17 07:52:08 51°14.621 2°51.349 13.8313 4.074075 33.856035 8.556255
2006-05-17 07:52:13 51°14.617 2°51.318 13.8318 4.07397 33.854381 8.556255
2006-05-17 07:52:18 51°14.613 2°51.288 13.8264 4.07397 33.853705 8.522546
2006-05-17 07:52:23 51°14.609 2°51.258 13.8256 4.07397 33.853705 8.522546
2006-05-17 07:52:28 51°14.606 2°51.227 13.8285 4.07418 33.85566 8.522546
2006-05-17 07:52:33 51°14.603 2°51.196 13.8226 4.06891 33.807449 8.556255
2006-05-17 07:52:38 51°14.599 2°51.165 13.8208 4.074286 33.856638 8.556255
2006-05-17 07:52:44 51°14.596 2°51.129 13.8178 4.072916 33.843927 8.556255
2006-05-17 07:52:48 51°14.595 2°51.104 13.8117 4.072916 33.843927 8.556255
2006-05-17 07:52:53 51°14.592 2°51.073 13.804 4.074391 33.859644 8.623674
2006-05-17 07:52:58 51°14.591 2°51.042 13.804 4.074391 33.862349 8.623674
2006-05-17 07:53:04 51°14.589 2°51.005 13.7979 4.074497 33.864004 8.589965
2006-05-17 07:53:08 51°14.587 2°50.98 13.7867 4.074602 33.867687 8.589965
2006-05-17 07:53:12 51°14.586 2°50.955 13.7852 4.075129 33.873931 8.589965
2006-05-17 07:53:18 51°14.584 2°50.918 13.7794 4.075129 33.873931 8.589965
2006-05-17 07:53:24 51°14.581 2°50.881 13.7761 4.075445 33.880249 8.623674
2006-05-17 07:53:28 51°14.579 2°50.856 13.7724 4.073654 33.869709 8.657383
2006-05-17 07:53:34 51°14.576 2°50.819 13.7798 4.073443 33.873167 8.657383
2006-05-17 07:53:38 51°14.574 2°50.794 13.7788 4.077554 33.916077 8.691093
2006-05-17 07:53:43 51°14.57 2°50.764 13.7783 4.077764 33.924816 8.691093
2006-05-17 07:53:49 51°14.566 2°50.727 13.7776 4.078819 33.940714 8.724802
2006-05-17 07:53:52 51°14.564 2°50.708 13.775 4.078819 33.940714 8.724802
2006-05-17 07:53:57 51°14.56 2°50.678 13.775 4.079556 33.953 8.724802
2006-05-17 07:54:03 51°14.555 2°50.641 13.7697 4.079662 33.958055 8.758512
2006-05-17 07:54:08 51°14.552 2°50.61 13.7681 4.07924 33.954816 8.724802
2006-05-17 07:54:13 51°14.547 2°50.58 13.7666 4.078608 33.947581 8.724802
2006-05-17 07:54:18 51°14.544 2°50.549 13.7558 4.078608 33.947581 8.724802
2006-05-17 07:54:23 51°14.54 2°50.519 13.7489 4.077976 33.944419 8.724802
2006-05-17 07:54:28 51°14.537 2°50.488 13.7436 4.077765 33.94246 8.691093
2006-05-17 07:54:34 51°14.533 2°50.451 13.7441 4.077976 33.946457 8.691093
2006-05-17 07:54:38 51°14.53 2°50.426 13.7386 4.078608 33.955052 8.724802
2006-05-17 07:54:43 51°14.527 2°50.396 13.7361 4.079557 33.968627 8.758512
2006-05-17 07:54:48 51°14.523 2°50.364 13.7383 4.079557 33.968627 8.758512
2006-05-17 07:54:52 51°14.521 2°50.339 13.7395 4.076922 33.94481 8.758512
2006-05-17 07:54:58 51°14.518 2°50.302 13.7354 4.081559 33.993369 8.792221
2006-05-17 07:55:03 51°14.516 2°50.271 13.7386 4.083246 34.01518 8.792221
2006-05-17 07:55:08 51°14.513 2°50.24 13.7378 4.082508 34.013084 8.82593
2006-05-17 07:55:13 51°14.511 2°50.209 13.7301 4.083668 34.02864 8.792221
2006-05-17 07:55:18 51°14.508 2°50.178 13.7319 4.083668 34.030685 8.758512
2006-05-17 07:55:22 51°14.505 2°50.154 13.7278 4.083668 34.030685 8.758512
2006-05-17 07:55:28 51°14.499 2°50.117 13.7286 4.083141 34.027144 8.792221
2006-05-17 07:55:33 51°14.494 2°50.087 13.7288 4.075973 33.96114 8.758512
2006-05-17 07:55:38 51°14.489 2°50.057 13.7346 4.082824 34.026928 8.758512
2006-05-17 07:55:44 51°14.482 2°50.022 13.7405 4.082614 34.026329 8.758512
2006-05-17 07:55:48 51°14.477 2°49.998 13.7439 4.082508 34.028757 8.758512
2006-05-17 07:55:53 51°14.47 2°49.968 13.7499 4.082508 34.028757 8.758512
2006-05-17 07:55:58 51°14.464 2°49.939 13.7532 4.08293 34.035408 8.792221
2006-05-17 07:56:03 51°14.457 2°49.91 13.754 4.082508 34.032166 8.758512
2006-05-17 07:56:08 51°14.451 2°49.88 13.753 4.082719 34.034128 8.792221
2006-05-17 07:56:13 51°14.444 2°49.851 13.7554 4.076184 33.970585 8.691093
2006-05-17 07:56:18 51°14.438 2°49.821 13.754 4.076184 33.970585 8.691093
2006-05-17 07:56:22 51°14.432 2°49.797 13.7534 4.080506 34.008756 8.724802
2006-05-17 07:56:28 51°14.425 2°49.762 13.76 4.079662 33.996823 8.657383
2006-05-17 07:56:33 51°14.418 2°49.732 13.758 4.079135 33.986473 8.657383
2006-05-17 07:56:37 51°14.413 2°49.709 13.7564 4.078925 33.98247 8.657383
2006-05-17 07:56:43 51°14.406 2°49.673 13.7558 4.078714 33.977788 8.691093
2006-05-17 07:56:48 51°14.4 2°49.643 13.7487 4.078714 33.977788 8.691093
2006-05-17 07:56:53 51°14.394 2°49.613 13.7457 4.078608 33.976807 8.691093
2006-05-17 07:56:58 51°14.389 2°49.583 13.7416 4.078398 33.974166 8.724802
2006-05-17 07:57:03 51°14.384 2°49.553 13.7399 4.077976 33.969565 8.724802
2006-05-17 07:57:08 51°14.378 2°49.522 13.7428 4.077449 33.963983 8.724802
2006-05-17 07:57:13 51°14.373 2°49.492 13.7362 4.077344 33.963003 8.758512
2006-05-17 07:57:18 51°14.368 2°49.462 13.7338 4.077238 33.962703 8.758512
2006-05-17 07:57:24 51°14.361 2°49.426 13.736 4.077238 33.962703 8.758512
2006-05-17 07:57:28 51°14.357 2°49.402 13.7333 4.077449 33.967384 8.758512
2006-05-17 07:57:33 51°14.35 2°49.372 13.7346 4.077238 33.970185 8.792221
2006-05-17 07:57:38 51°14.344 2°49.343 13.7332 4.07766 33.976148 8.792221
2006-05-17 07:57:44 51°14.336 2°49.307 13.7337 4.077765 33.979851 8.792221
2006-05-17 07:57:48 51°14.33 2°49.284 13.7321 4.077976 33.983855 8.792221
2006-05-17 07:57:52 51°14.324 2°49.26 13.7361 4.077976 33.983855 8.792221
2006-05-17 07:57:58 51°14.316 2°49.225 13.7362 4.077871 33.986278 8.792221
2006-05-17 07:58:04 51°14.307 2°49.19 13.7351 4.077765 33.985978 8.758512
2006-05-17 07:58:08 51°14.301 2°49.167 13.7361 4.078082 33.989601 8.758512
2006-05-17 07:58:13 51°14.294 2°49.137 13.7347 4.078082 33.990964 8.758512
2006-05-17 07:58:17 51°14.289 2°49.114 13.7374 4.078082 33.990964 8.758512
2006-05-17 07:58:23 51°14.282 2°49.078 13.7293 4.077976 33.990664 8.758512
2006-05-17 07:58:28 51°14.275 2°49.048 13.732 4.07766 33.987721 8.724802
2006-05-17 07:58:33 51°14.27 2°49.018 13.7345 4.077555 33.985378 8.691093
2006-05-17 07:58:38 51°14.264 2°48.988 13.7305 4.077344 33.982735 8.724802
2006-05-17 07:58:42 51°14.259 2°48.964 13.7212 4.077765 33.985978 8.724802
2006-05-17 07:58:48 51°14.252 2°48.928 13.7152 4.077765 33.985297 8.724802
2006-05-17 07:58:54 51°14.244 2°48.893 13.7091 4.077765 33.985297 8.724802
2006-05-17 07:58:58 51°14.239 2°48.869 13.7035 4.07766 33.985678 8.691093
2006-05-17 07:59:03 51°14.232 2°48.84 13.7036 4.077765 33.988702 8.724802
2006-05-17 07:59:08 51°14.225 2°48.811 13.703 4.078292 33.992925 8.758512
2006-05-17 07:59:13 51°14.217 2°48.783 13.7043 4.079241 34.003116 8.758512
2006-05-17 07:59:17 51°14.21 2°48.76 13.6994 4.080506 34.022388 8.82593
2006-05-17 07:59:24 51°14.198 2°48.721 13.6958 4.080506 34.022388 8.82593
2006-05-17 07:59:28 51°14.19 2°48.699 13.7014 4.081033 34.032069 8.792221
2006-05-17 07:59:34 51°14.18 2°48.665 13.7002 4.082509 34.050588 8.82593
2006-05-17 07:59:38 51°14.172 2°48.643 13.694 4.082825 34.059679 8.85964
2006-05-17 07:59:43 51°14.163 2°48.616 13.6877 4.083036 34.063009 8.82593
2006-05-17 07:59:47 51°14.156 2°48.594 13.6841 4.083457 34.068986 8.82593
2006-05-17 07:59:53 51°14.145 2°48.561 13.683 4.083457 34.068986 8.82593
2006-05-17 07:59:58 51°14.135 2°48.534 13.6805 4.083457 34.071036 8.82593
2006-05-17 08:00:04 51°14.125 2°48.502 13.6743 4.083879 34.075647 8.82593
2006-05-17 08:00:07 51°14.12 2°48.488 13.6718 4.084195 34.079277 8.82593
2006-05-17 08:00:13 51°14.111 2°48.459 13.6621 4.084722 34.085555 8.82593
2006-05-17 08:00:18 51°14.104 2°48.437 13.661 4.084722 34.085555 8.82593
2006-05-17 08:00:21 51°14.1 2°48.425 13.6532 4.085671 34.097131 8.85964
2006-05-17 08:00:28 51°14.091 2°48.397 13.6465 4.086198 34.106832 8.893349
2006-05-17 08:00:34 51°14.084 2°48.374 13.643 4.087147 34.118412 8.85964
2006-05-17 08:00:38 51°14.08 2°48.36 13.6377 4.087884 34.127345 8.85964
2006-05-17 08:00:41 51°14.077 2°48.35 13.6372 4.089255 34.146287 8.85964
2006-05-17 08:00:47 51°14.07 2°48.329 13.6343 4.08799 34.139975 8.82593
2006-05-17 08:00:53 51°14.065 2°48.31 13.6314 4.08799 34.139975 8.82593
2006-05-17 08:00:58 51°14.06 2°48.295 13.6288 4.091363 34.178295 8.792221
2006-05-17 08:01:03 51°14.056 2°48.28 13.6321 4.092206 34.191654 8.85964
2006-05-17 08:01:08 51°14.051 2°48.266 13.6301 4.09305 34.202958 8.82593
2006-05-17 08:01:13 51°14.047 2°48.252 13.6285 4.093682 34.215045 8.82593
2006-05-17 08:01:18 51°14.043 2°48.239 13.6227 4.093998 34.222123 8.792221
2006-05-17 08:01:23 51°14.039 2°48.226 13.6219 4.093998 34.222123 8.792221
2006-05-17 08:01:28 51°14.035 2°48.213 13.625 4.093998 34.224874 8.792221
2006-05-17 08:01:33 51°14.031 2°48.201 13.6227 4.09305 34.220143 8.758512
2006-05-17 08:01:38 51°14.028 2°48.189 13.6228 4.093155 34.221128 8.758512
2006-05-17 08:01:42 51°14.025 2°48.18 13.6199 4.092312 34.216005 8.724802
2006-05-17 08:01:48 51°14.02 2°48.166 13.618 4.092312 34.216005 8.724802
2006-05-17 08:01:53 51°14.017 2°48.155 13.6165 4.093366 34.225848 8.724802
2006-05-17 08:01:58 51°14.013 2°48.144 13.616 4.095369 34.247991 8.724802
2006-05-17 08:02:04 51°14.009 2°48.132 13.6172 4.093577 34.231257 8.691093
2006-05-17 08:02:08 51°14.006 2°48.124 13.6164 4.094525 34.240804 8.657383
2006-05-17 08:02:13 51°14.003 2°48.114 13.6145 4.096317 34.258229 8.657383
2006-05-17 08:02:18 51°13.999 2°48.105 13.6096 4.097161 34.268861 8.657383
2006-05-17 08:02:23 51°13.996 2°48.096 13.6097 4.097161 34.268861 8.657383
2006-05-17 08:02:28 51°13.993 2°48.088 13.6082 4.096317 34.26374 8.691093
2006-05-17 08:02:33 51°13.99 2°48.08 13.6128 4.096317 34.265118 8.657383
2006-05-17 08:02:38 51°13.987 2°48.073 13.6096 4.097477 34.27664 8.623674
2006-05-17 08:02:42 51°13.985 2°48.068 13.61 4.096423 34.268859 8.623674
2006-05-17 08:02:48 51°13.983 2°48.062 13.6121 4.097371 34.278412 8.589965
2006-05-17 08:02:53 51°13.982 2°48.057 13.6056 4.097371 34.278412 8.589965
2006-05-17 08:02:58 51°13.981 2°48.053 13.606 4.098004 34.28708 8.623674
2006-05-17 08:03:03 51°13.98 2°48.05 13.6058 4.097899 34.286095 8.589965
2006-05-17 08:03:07 51°13.979 2°48.048 13.6099 4.099058 34.29693 8.589965
2006-05-17 08:03:13 51°13.979 2°48.046 13.6024 4.097582 34.284519 8.589965
2006-05-17 08:03:18 51°13.978 2°48.045 13.605 4.097582 34.284519 8.589965
2006-05-17 08:03:23 51°13.978 2°48.045 13.6035 4.098004 34.288459 8.589965
2006-05-17 08:03:28 51°13.977 2°48.045 13.5954 4.099269 34.30097 8.589965
2006-05-17 08:03:33 51°13.977 2°48.044 13.5935 4.099269 34.30097 8.623674
2006-05-17 08:03:39 51°13.977 2°48.044 13.5925 4.098109 34.290134 8.556255
2006-05-17 08:03:44 51°13.976 2°48.043 13.5872 4.097372 34.285998 8.589965
2006-05-17 08:03:49 51°13.976 2°48.042 13.5864 4.097372 34.285998 8.589965
2006-05-17 08:03:54 51°13.975 2°48.042 13.5828 4.098531 34.296834 8.589965
2006-05-17 08:03:59 51°13.975 2°48.041 13.5808 4.100112 34.312302 8.623674
2006-05-17 08:04:03 51°13.974 2°48.04 13.5786 4.099163 34.306886 8.657383
2006-05-17 08:04:09 51°13.974 2°48.039 13.5754 4.099269 34.312013 8.691093
2006-05-17 08:04:14 51°13.973 2°48.039 13.5794 4.098953 34.311819 8.724802
2006-05-17 08:04:18 51°13.973 2°48.038 13.5782 4.099269 34.318229 8.758512
2006-05-17 08:04:23 51°13.972 2°48.037 13.5743 4.099269 34.318229 8.758512
2006-05-17 08:04:28 51°13.971 2°48.036 13.5742 4.098847 34.316358 8.691093
2006-05-17 08:04:32 51°13.971 2°48.036 13.5739 4.100007 34.330656 8.758512
2006-05-17 08:04:38 51°13.97 2°48.034 13.5751 4.099058 34.325239 8.758512
2006-05-17 08:04:42 51°13.97 2°48.033 13.5703 4.099796 34.332831 8.724802
2006-05-17 08:04:48 51°13.969 2°48.032 13.5735 4.100956 34.344368 8.724802
2006-05-17 08:04:53 51°13.969 2°48.031 13.5709 4.100956 34.344368 8.724802
2006-05-17 08:04:58 51°13.968 2°48.03 13.5693 4.101272 34.350784 8.758512
2006-05-17 08:05:02 51°13.968 2°48.029 13.5706 4.101061 34.348812 8.758512
2006-05-17 08:05:07 51°13.968 2°48.028 13.5696 4.101483 34.35414 8.758512
2006-05-17 08:05:11 51°13.967 2°48.027 13.5696 4.101061 34.350195 8.758512
2006-05-17 08:05:18 51°13.966 2°48.026 13.5695 4.101061 34.351579 8.758512
2006-05-17 08:05:23 51°13.966 2°48.024 13.5695 4.101061 34.351579 8.758512
2006-05-17 08:05:28 51°13.966 2°48.023 13.5718 4.098637 34.328899 8.758512
2006-05-17 08:05:33 51°13.965 2°48.022 13.5704 4.101272 34.354243 8.792221
2006-05-17 08:05:38 51°13.965 2°48.021 13.561 4.101167 34.353949 8.758512
2006-05-17 08:05:44 51°13.964 2°48.019 13.565 4.101272 34.354935 8.724802
2006-05-17 08:05:48 51°13.964 2°48.018 13.5625 4.099375 34.338567 8.758512
2006-05-17 08:05:53 51°13.964 2°48.017 13.562 4.099375 34.338567 8.758512
2006-05-17 08:05:58 51°13.963 2°48.016 13.5601 4.101272 34.355627 8.724802
2006-05-17 08:06:04 51°13.962 2°48.014 13.5645 4.100956 34.350593 8.724802
2006-05-17 08:06:08 51°13.962 2°48.013 13.573 4.101061 34.349504 8.994477
2006-05-17 08:06:13 51°13.962 2°48.012 13.5773 4.101904 34.356701 8.82593
2006-05-17 08:06:18 51°13.962 2°48.011 13.5789 4.100639 34.345559 8.724802
2006-05-17 08:06:23 51°13.961 2°48.009 13.5733 4.100639 34.345559 8.724802
2006-05-17 08:06:27 51°13.961 2°48.008 13.5697 4.100534 34.345957 8.724802
2006-05-17 08:06:33 51°13.96 2°48.006 13.5689 4.098215 34.323572 8.758512
2006-05-17 08:06:38 51°13.96 2°48.005 13.5754 4.10085 34.349607 8.657383
2006-05-17 08:06:43 51°13.959 2°48.003 13.5811 4.100534 34.342499 8.589965
2006-05-17 08:06:48 51°13.959 2°48.002 13.5812 4.098848 34.322576 8.589965
2006-05-17 08:06:51 51°13.959 2°48.001 13.5798 4.098848 34.322576 8.589965
2006-05-17 08:06:58 51°13.958 2°47.999 13.5771 4.097899 34.310941 8.657383
2006-05-17 08:07:03 51°13.958 2°47.997 13.5782 4.100745 34.340322 8.657383
2006-05-17 08:07:08 51°13.957 2°47.996 13.5844 4.100639 34.339336 8.691093
2006-05-17 08:07:13 51°13.957 2°47.994 13.5915 4.100429 34.337364 8.623674
2006-05-17 08:07:18 51°13.956 2°47.993 13.5905 4.100429 34.337364 8.623674
2006-05-17 08:07:23 51°13.956 2°47.991 13.5873 4.100323 34.332231 8.623674
2006-05-17 08:07:28 51°13.956 2°47.989 13.5858 4.097161 34.301279 8.657383
2006-05-17 08:07:33 51°13.955 2°47.988 13.5889 4.097372 34.30325 8.657383
2006-05-17 08:07:38 51°13.955 2°47.986 13.5919 4.100428 34.331144 8.623674
2006-05-17 08:07:44 51°13.954 2°47.984 13.5959 4.100218 34.328481 8.589965
2006-05-17 08:07:48 51°13.954 2°47.982 13.5949 4.100323 34.325321 8.556255
2006-05-17 08:07:53 51°13.953 2°47.981 13.5932 4.100323 34.325321 8.556255
2006-05-17 08:07:58 51°13.953 2°47.979 13.5935 4.100745 34.3265 8.623674
2006-05-17 08:08:03 51°13.953 2°47.977 13.5908 4.100745 34.327882 8.589965
2006-05-17 08:08:08 51°13.952 2°47.976 13.585 4.100428 34.325616 8.589965
2006-05-17 08:08:13 51°13.952 2°47.974 13.586 4.100745 34.325119 8.589965
2006-05-17 08:08:18 51°13.952 2°47.972 13.5884 4.100745 34.323047 8.556255
2006-05-17 08:08:23 51°13.951 2°47.97 13.5799 4.100745 34.323047 8.556255
2006-05-17 08:08:28 51°13.951 2°47.968 13.5842 4.10085 34.323342 8.522546
2006-05-17 08:08:33 51°13.95 2°47.966 13.5857 4.100955 34.323636 8.522546
2006-05-17 08:08:38 51°13.95 2°47.965 13.5912 4.100955 34.325018 8.556255
2006-05-17 08:08:43 51°13.949 2°47.963 13.5918 4.101588 34.332312 8.522546
2006-05-17 08:08:48 51°13.949 2°47.961 13.5974 4.101482 34.33409 8.522546
2006-05-17 08:08:54 51°13.949 2°47.958 13.597 4.101482 34.33409 8.522546
2006-05-17 08:08:58 51°13.948 2°47.957 13.5941 4.101482 34.334781 8.522546
2006-05-17 08:09:03 51°13.948 2°47.955 13.5939 4.101482 34.335472 8.522546
2006-05-17 08:09:07 51°13.948 2°47.953 13.5977 4.101482 34.336163 8.522546
2006-05-17 08:09:13 51°13.947 2°47.951 13.5928 4.101272 34.330737 8.488836
2006-05-17 08:09:18 51°13.947 2°47.949 13.5933 4.101272 34.330737 8.488836
2006-05-17 08:09:24 51°13.946 2°47.947 13.5929 4.101272 34.329355 8.455127
2006-05-17 08:09:28 51°13.946 2°47.945 13.5975 4.101272 34.327283 8.522546
2006-05-17 08:09:33 51°13.946 2°47.943 13.6001 4.101166 34.325607 8.455127
2006-05-17 08:09:38 51°13.945 2°47.941 13.5998 4.101272 34.327283 8.455127
2006-05-17 08:09:44 51°13.945 2°47.939 13.6026 4.101272 34.326592 8.455127
2006-05-17 08:09:47 51°13.945 2°47.937 13.6018 4.101588 34.330239 8.455127
2006-05-17 08:09:52 51°13.944 2°47.935 13.6037 4.101588 34.330239 8.455127
2006-05-17 08:09:58 51°13.944 2°47.933 13.6104 4.101272 34.328665 8.488836
2006-05-17 08:10:01 51°13.944 2°47.931 13.6151 4.101272 34.327283 8.488836
2006-05-17 08:10:07 51°13.943 2°47.929 13.6209 4.101377 34.326887 8.455127
2006-05-17 08:10:13 51°13.943 2°47.926 13.619 4.101271 34.324521 8.455127
2006-05-17 08:10:18 51°13.942 2°47.924 13.622 4.101271 34.324521 8.455127
2006-05-17 08:10:22 51°13.942 2°47.923 13.6232 4.100955 34.320874 8.488836
2006-05-17 08:10:28 51°13.942 2°47.92 13.6219 4.101166 34.320083 8.455127
2006-05-17 08:10:33 51°13.942 2°47.918 13.6234 4.101166 34.318702 8.421418
2006-05-17 08:10:38 51°13.941 2°47.916 13.6245 4.100955 34.31259 8.421418
2006-05-17 08:10:43 51°13.941 2°47.914 13.6219 4.100955 34.30845 8.387708
2006-05-17 08:10:48 51°13.941 2°47.911 13.6188 4.100217 34.298797 8.387708
2006-05-17 08:10:54 51°13.941 2°47.909 13.6215 4.100217 34.298797 8.387708
2006-05-17 08:10:58 51°13.94 2°47.907 13.6184 4.100744 34.300962 8.387708
2006-05-17 08:11:03 51°13.94 2°47.905 13.6176 4.10106 34.301847 8.353999
2006-05-17 08:11:08 51°13.94 2°47.903 13.6193 4.100744 34.299583 8.387708
2006-05-17 08:11:13 51°13.94 2°47.9 13.6136 4.101377 34.303422 8.387708
2006-05-17 08:11:18 51°13.939 2°47.898 13.6105 4.101377 34.302732 8.353999
2006-05-17 08:11:23 51°13.939 2°47.896 13.6056 4.101377 34.302732 8.353999
2006-05-17 08:11:28 51°13.939 2°47.894 13.6019 4.101271 34.303817 8.387708
2006-05-17 08:11:33 51°13.939 2°47.891 13.604 4.101798 34.31012 8.387708
2006-05-17 08:11:38 51°13.939 2°47.887 13.6001 4.10106 34.305296 8.387708
2006-05-17 08:11:44 51°13.939 2°47.883 13.6031 4.101798 34.31219 8.387708
2006-05-17 08:11:48 51°13.94 2°47.879 13.6041 4.101798 34.314949 8.387708
2006-05-17 08:11:53 51°13.941 2°47.873 13.6027 4.101798 34.314949 8.387708
2006-05-17 08:11:58 51°13.943 2°47.865 13.6051 4.102115 34.321355 8.387708
2006-05-17 08:12:03 51°13.945 2°47.856 13.6005 4.101798 34.319781 8.421418
2006-05-17 08:12:08 51°13.949 2°47.847 13.594 4.101904 34.323527 8.387708
2006-05-17 08:12:13 51°13.953 2°47.838 13.5895 4.102115 34.327569 8.387708
2006-05-17 08:12:18 51°13.957 2°47.828 13.5784 4.102009 34.328655 8.421418
2006-05-17 08:12:23 51°13.963 2°47.819 13.5793 4.102009 34.328655 8.421418
2006-05-17 08:12:28 51°13.969 2°47.81 13.5764 4.101904 34.32767 8.421418
2006-05-17 08:12:33 51°13.976 2°47.802 13.5727 4.102009 34.327965 8.522546
2006-05-17 08:12:38 51°13.984 2°47.796 13.5716 4.101904 34.329051 8.589965
2006-05-17 08:12:42 51°13.99 2°47.79 13.5692 4.10222 34.333388 8.589965
2006-05-17 08:12:47 51°13.998 2°47.785 13.5772 4.10222 34.333388 8.589965
2006-05-17 08:12:54 51°14.009 2°47.779 13.5772 4.102747 34.34177 8.657383
2006-05-17 08:12:58 51°14.015 2°47.777 13.5796 4.102958 34.34927 8.657383
2006-05-17 08:13:03 51°14.022 2°47.775 13.5819 4.102642 34.34977 8.623674
2006-05-17 08:13:08 51°14.029 2°47.773 13.5824 4.102537 34.349476 8.623674
2006-05-17 08:13:14 51°14.037 2°47.772 13.589 4.102431 34.35333 8.623674
2006-05-17 08:13:18 51°14.042 2°47.772 13.5905 4.102431 34.354713 8.623674
2006-05-17 08:13:23 51°14.048 2°47.773 13.6031 4.102431 34.354713 8.623674
2006-05-17 08:13:28 51°14.053 2°47.774 13.6152 4.102326 34.352344 8.556255
2006-05-17 08:13:33 51°14.058 2°47.776 13.6203 4.10222 34.349975 8.556255
2006-05-17 08:13:38 51°14.063 2°47.779 13.6267 4.101588 34.342678 8.522546
2006-05-17 08:13:42 51°14.067 2°47.781 13.626 4.10201 34.34593 8.556255
2006-05-17 08:13:48 51°14.072 2°47.785 13.6234 4.101588 34.339222 8.556255
2006-05-17 08:13:53 51°14.076 2°47.789 13.6214 4.101588 34.339222 8.556255
2006-05-17 08:13:58 51°14.079 2°47.792 13.6247 4.100323 34.32394 8.455127
2006-05-17 08:14:03 51°14.083 2°47.796 13.6249 4.100217 34.316048 8.421418
2006-05-17 08:14:08 51°14.086 2°47.8 13.631 4.097582 34.281761 8.421418
2006-05-17 08:14:14 51°14.09 2°47.806 13.6356 4.097371 34.272898 8.387708
2006-05-17 08:14:18 51°14.092 2°47.809 13.6364 4.097371 34.272898 8.387708
2006-05-17 08:14:22 51°14.095 2°47.813 13.636 4.096739 34.262856 8.421418
2006-05-17 08:14:28 51°14.098 2°47.819 13.6326 4.09579 34.253307 8.455127
2006-05-17 08:14:33 51°14.101 2°47.823 13.6355 4.095685 34.251633 8.455127
2006-05-17 08:14:38 51°14.103 2°47.828 13.6349 4.095369 34.247303 8.455127
2006-05-17 08:14:42 51°14.106 2°47.832 13.6347 4.095263 34.244253 8.455127
2006-05-17 08:14:47 51°14.108 2°47.837 13.6319 4.093893 34.228705 8.421418
2006-05-17 08:14:53 51°14.111 2°47.844 13.6316 4.093893 34.228705 8.421418
2006-05-17 08:14:57 51°14.113 2°47.848 13.6296 4.094209 34.229593 8.421418
2006-05-17 08:15:04 51°14.117 2°47.855 13.6247 4.093155 34.218376 8.421418
2006-05-17 08:15:07 51°14.118 2°47.858 13.6288 4.092839 34.215424 8.455127
2006-05-17 08:15:13 51°14.122 2°47.865 13.6309 4.093155 34.218376 8.455127
2006-05-17 08:15:18 51°14.124 2°47.87 13.6328 4.09305 34.216705 8.421418
2006-05-17 08:15:22 51°14.126 2°47.874 13.6326 4.09305 34.216705 8.421418
2006-05-17 08:15:28 51°14.129 2°47.88 13.6358 4.09305 34.217392 8.488836
2006-05-17 08:15:33 51°14.132 2°47.886 13.6391 4.092839 34.2168 8.488836
2006-05-17 08:15:38 51°14.134 2°47.891 13.644 4.092734 34.217191 8.488836
2006-05-17 08:15:43 51°14.137 2°47.896 13.6434 4.09168 34.209412 8.556255
2006-05-17 08:15:48 51°14.14 2°47.901 13.6508 4.091996 34.21099 8.488836
2006-05-17 08:15:51 51°14.142 2°47.904 13.6529 4.091996 34.21099 8.488836
2006-05-17 08:15:58 51°14.145 2°47.911 13.6583 4.092312 34.212567 8.488836
2006-05-17 08:16:03 51°14.148 2°47.916 13.657 4.092101 34.209911 8.488836
2006-05-17 08:16:08 51°14.151 2°47.921 13.6571 4.091153 34.198992 8.522546
2006-05-17 08:16:13 51°14.154 2°47.927 13.6595 4.091363 34.196837 8.488836
2006-05-17 08:16:18 51°14.157 2°47.931 13.6643 4.091363 34.196837 8.488836
2006-05-17 08:16:24 51°14.16 2°47.937 13.6725 4.091047 34.191824 8.455127
2006-05-17 08:16:28 51°14.163 2°47.941 13.6754 4.090309 34.181504 8.421418
2006-05-17 08:16:33 51°14.166 2°47.946 13.6744 4.09052 34.179351 8.455127
2006-05-17 08:16:38 51°14.168 2°47.951 13.6728 4.090414 34.174935 8.455127
2006-05-17 08:16:42 51°14.171 2°47.955 13.6715 4.089887 34.170018 8.421418
2006-05-17 08:16:48 51°14.174 2°47.96 13.6695 4.089887 34.167959 8.455127
2006-05-17 08:16:53 51°14.177 2°47.965 13.6729 4.089887 34.167959 8.455127
2006-05-17 08:16:58 51°14.18 2°47.969 13.6759 4.089887 34.163156 8.455127
2006-05-17 08:17:03 51°14.183 2°47.974 13.6766 4.08936 34.154125 8.455127
2006-05-17 08:17:08 51°14.186 2°47.978 13.6804 4.089255 34.1504 8.455127
2006-05-17 08:17:13 51°14.189 2°47.982 13.6804 4.088939 34.145394 8.455127
2006-05-17 08:17:18 51°14.193 2°47.987 13.6798 4.089255 34.149029 8.455127
2006-05-17 08:17:23 51°14.196 2°47.991 13.6817 4.089255 34.149029 8.455127
2006-05-17 08:17:28 51°14.199 2°47.995 13.6921 4.089149 34.14736 8.488836
2006-05-17 08:17:33 51°14.202 2°47.999 13.6977 4.089255 34.148343 8.488836
2006-05-17 08:17:38 51°14.205 2°48.003 13.696 4.088517 34.140092 8.455127
2006-05-17 08:17:44 51°14.209 2°48.008 13.695 4.088622 34.138334 8.455127
2006-05-17 08:17:48 51°14.212 2°48.011 13.6861 4.088306 34.1347 8.455127
2006-05-17 08:17:53 51°14.215 2°48.015 13.6765 4.088306 34.1347 8.455127
2006-05-17 08:17:58 51°14.218 2°48.02 13.6762 4.088517 34.135981 8.488836
2006-05-17 08:18:04 51°14.222 2°48.025 13.6775 4.087884 34.127345 8.455127
2006-05-17 08:18:08 51°14.224 2°48.028 13.6793 4.086725 34.111059 8.455127
2006-05-17 08:18:14 51°14.228 2°48.033 13.6759 4.086303 34.103708 8.522546
2006-05-17 08:18:18 51°14.23 2°48.037 13.6797 4.086514 34.104989 8.522546
2006-05-17 08:18:24 51°14.234 2°48.042 13.6815 4.086514 34.104989 8.522546
2006-05-17 08:18:27 51°14.235 2°48.045 13.6859 4.08683 34.112726 8.556255
2006-05-17 08:18:33 51°14.239 2°48.05 13.6877 4.087568 34.123712 8.623674
2006-05-17 08:18:38 51°14.241 2°48.055 13.6828 4.087674 34.125379 8.589965
2006-05-17 08:18:43 51°14.244 2°48.059 13.6811 4.087463 34.125469 8.623674
2006-05-17 08:18:48 51°14.247 2°48.064 13.6764 4.087568 34.128506 8.589965
2006-05-17 08:18:53 51°14.249 2°48.069 13.6783 4.087568 34.128506 8.589965
2006-05-17 08:18:58 51°14.252 2°48.073 13.6762 4.087147 34.12252 8.623674
2006-05-17 08:19:03 51°14.255 2°48.078 13.6771 4.08683 34.118888 8.623674
2006-05-17 08:19:08 51°14.257 2°48.083 13.6779 4.086409 34.11085 8.589965
2006-05-17 08:19:14 51°14.26 2°48.089 13.6804 4.086303 34.111236 8.623674
2006-05-17 08:19:18 51°14.262 2°48.093 13.6817 4.086725 34.115851 8.623674
2006-05-17 08:19:21 51°14.263 2°48.096 13.6838 4.086725 34.115851 8.623674
2006-05-17 08:19:27 51°14.266 2°48.102 13.6859 4.086093 34.112009 8.589965
2006-05-17 08:19:33 51°14.269 2°48.108 13.6878 4.086514 34.116625 8.691093
2006-05-17 08:19:38 51°14.271 2°48.113 13.6859 4.08662 34.117607 8.657383
2006-05-17 08:19:42 51°14.273 2°48.117 13.6844 4.086514 34.117994 8.623674
2006-05-17 08:19:48 51°14.275 2°48.123 13.683 4.086198 34.114361 8.657383
2006-05-17 08:19:53 51°14.278 2°48.128 13.6827 4.086198 34.114361 8.657383
2006-05-17 08:19:58 51°14.28 2°48.133 13.6859 4.084617 34.097569 8.623674
2006-05-17 08:20:04 51°14.282 2°48.14 13.6855 4.08546 34.102692 8.657383
2006-05-17 08:20:09 51°14.284 2°48.145 13.684 4.085249 34.099358 8.623674
2006-05-17 08:20:13 51°14.286 2°48.149 13.6821 4.084933 34.097095 8.623674
2006-05-17 08:20:18 51°14.288 2°48.155 13.6848 4.084406 34.092867 8.691093
2006-05-17 08:20:23 51°14.29 2°48.16 13.6853 4.084406 34.092867 8.691093
2006-05-17 08:20:28 51°14.292 2°48.165 13.6887 4.084722 34.095815 8.657383
2006-05-17 08:20:33 51°14.294 2°48.17 13.6898 4.084301 34.091201 8.691093
2006-05-17 08:20:37 51°14.296 2°48.175 13.6907 4.084195 34.090218 8.691093
2006-05-17 08:20:44 51°14.299 2°48.182 13.6943 4.083985 34.088253 8.724802
2006-05-17 08:20:48 51°14.301 2°48.186 13.7008 4.082614 34.075483 8.691093
2006-05-17 08:20:54 51°14.303 2°48.192 13.707 4.082614 34.075483 8.691093
2006-05-17 08:20:58 51°14.305 2°48.197 13.7094 4.081771 34.067624 8.691093
2006-05-17 08:21:02 51°14.307 2°48.201 13.7076 4.083458 34.082658 8.691093
2006-05-17 08:21:08 51°14.309 2°48.207 13.7155 4.080823 34.057417 8.691093
2006-05-17 08:21:13 51°14.311 2°48.212 13.724 4.08156 34.061559 8.691093
2006-05-17 08:21:18 51°14.314 2°48.217 13.7325 4.081244 34.056562 8.691093
2006-05-17 08:21:22 51°14.315 2°48.221 13.7386 4.081244 34.056562 8.691093
2006-05-17 08:21:27 51°14.318 2°48.226 13.7411 4.080928 34.049517 8.691093
2006-05-17 08:21:34 51°14.321 2°48.233 13.7434 4.079979 34.035218 8.657383
2006-05-17 08:21:38 51°14.323 2°48.237 13.7489 4.079241 34.025617 8.657383
2006-05-17 08:21:43 51°14.325 2°48.242 13.7512 4.079031 34.020242 8.691093
2006-05-17 08:21:48 51°14.327 2°48.246 13.7536 4.079031 34.020242 8.691093
2006-05-17 08:21:53 51°14.33 2°48.251 13.7491 4.078609 34.010861 8.657383
2006-05-17 08:21:58 51°14.332 2°48.256 13.7437 4.077766 33.995514 8.657383
2006-05-17 08:22:03 51°14.335 2°48.261 13.7452 4.077238 33.98584 8.623674
2006-05-17 08:22:08 51°14.337 2°48.265 13.7504 4.078503 33.992844 8.623674
2006-05-17 08:22:13 51°14.34 2°48.27 13.7544 4.077344 33.97729 8.623674
2006-05-17 08:22:18 51°14.342 2°48.275 13.7495 4.075868 33.960159 8.623674
2006-05-17 08:22:22 51°14.344 2°48.279 13.7516 4.075868 33.960159 8.623674
2006-05-17 08:22:28 51°14.347 2°48.284 13.7472 4.076079 33.959399 8.623674
2006-05-17 08:22:34 51°14.35 2°48.29 13.7538 4.076711 33.965963 8.657383
2006-05-17 08:22:38 51°14.352 2°48.293 13.7515 4.075552 33.955177 8.657383
2006-05-17 08:22:41 51°14.354 2°48.296 13.7492 4.076817 33.967623 8.623674
2006-05-17 08:22:47 51°14.357 2°48.302 13.7484 4.07629 33.95932 8.623674
2006-05-17 08:22:53 51°14.36 2°48.307 13.7488 4.07629 33.95932 8.623674
2006-05-17 08:22:58 51°14.362 2°48.312 13.7445 4.075657 33.954118 8.657383
2006-05-17 08:23:04 51°14.365 2°48.318 13.7434 4.075973 33.957059 8.691093
2006-05-17 08:23:08 51°14.367 2°48.322 13.7482 4.076079 33.958039 8.657383
2006-05-17 08:23:14 51°14.37 2°48.328 13.7428 4.077554 33.970405 8.691093
2006-05-17 08:23:18 51°14.372 2°48.332 13.7453 4.077554 33.970405 8.691093
2006-05-17 08:23:22 51°14.374 2°48.336 13.7485 4.075341 33.950497 8.691093
2006-05-17 08:23:29 51°14.378 2°48.342 13.749 4.075446 33.952157 8.724802
2006-05-17 08:23:33 51°14.38 2°48.346 13.7526 4.075763 33.957138 8.724802
2006-05-17 08:23:38 51°14.382 2°48.351 13.7534 4.076817 33.967623 8.724802
2006-05-17 08:23:43 51°14.385 2°48.356 13.7575 4.076606 33.966343 8.758512
2006-05-17 08:23:48 51°14.387 2°48.361 13.7644 4.077449 33.974867 8.792221
2006-05-17 08:23:53 51°14.39 2°48.366 13.7615 4.077449 33.974867 8.792221
2006-05-17 08:23:57 51°14.392 2°48.37 13.7589 4.077238 33.972226 8.758512
2006-05-17 08:24:03 51°14.395 2°48.375 13.7607 4.072917 33.930667 8.792221
2006-05-17 08:24:08 51°14.397 2°48.381 13.7606 4.077344 33.969805 8.758512
2006-05-17 08:24:13 51°14.4 2°48.385 13.76 4.075973 33.955699 8.792221
2006-05-17 08:24:18 51°14.402 2°48.39 13.7624 4.076184 33.95494 8.758512
2006-05-17 08:24:23 51°14.405 2°48.395 13.7703 4.076184 33.95494 8.758512
2006-05-17 08:24:28 51°14.407 2°48.4 13.773 4.075552 33.94498 8.792221
2006-05-17 08:24:33 51°14.41 2°48.405 13.7719 4.075657 33.945281 8.792221
2006-05-17 08:24:38 51°14.412 2°48.41 13.7721 4.075025 33.940079 8.792221
2006-05-17 08:24:43 51°14.415 2°48.414 13.7706 4.07513 33.941059 8.792221
2006-05-17 08:24:48 51°14.418 2°48.419 13.7679 4.0765 33.952442 8.82593
2006-05-17 08:24:53 51°14.42 2°48.424 13.7596 4.0765 33.952442 8.82593
2006-05-17 08:24:58 51°14.423 2°48.429 13.7516 4.076184 33.948142 8.792221
2006-05-17 08:25:03 51°14.426 2°48.434 13.7478 4.074076 33.925146 8.82593
2006-05-17 08:25:09 51°14.429 2°48.44 13.7472 4.074287 33.925068 8.792221
2006-05-17 08:25:13 51°14.431 2°48.444 13.7431 4.074919 33.92891 8.82593
2006-05-17 08:25:17 51°14.433 2°48.448 13.7416 4.074919 33.92891 8.82593
2006-05-17 08:25:24 51°14.436 2°48.455 13.7385 4.073338 33.914892 8.85964
2006-05-17 08:25:28 51°14.438 2°48.459 13.7379 4.073022 33.913989 8.85964
2006-05-17 08:25:33 51°14.441 2°48.464 13.7337 4.075446 33.941961 8.927059
2006-05-17 08:25:38 51°14.443 2°48.469 13.7327 4.076184 33.95358 8.893349
2006-05-17 08:25:44 51°14.446 2°48.475 13.7306 4.076079 33.955999 8.893349
2006-05-17 08:25:48 51°14.448 2°48.479 13.7309 4.076395 33.961661 8.893349
2006-05-17 08:25:54 51°14.451 2°48.485 13.7269 4.076395 33.961661 8.893349
2006-05-17 08:25:58 51°14.453 2°48.489 13.7281 4.076395 33.965062 8.927059
2006-05-17 08:26:01 51°14.455 2°48.492 13.7297 4.078819 33.989658 8.927059
2006-05-17 08:26:07 51°14.458 2°48.498 13.7354 4.077344 33.978651 8.960768
2006-05-17 08:26:13 51°14.461 2°48.504 13.7375 4.074814 33.956475 8.994477
2006-05-17 08:26:18 51°14.463 2°48.509 13.7368 4.077028 33.980474 8.960768
2006-05-17 08:26:23 51°14.466 2°48.515 13.7367 4.077028 33.980474 8.960768
2006-05-17 08:26:28 51°14.468 2°48.52 13.7342 4.076606 33.97655 8.960768
2006-05-17 08:26:33 51°14.471 2°48.525 13.7327 4.077238 33.985159 8.927059
2006-05-17 08:26:38 51°14.473 2°48.53 13.737 4.073655 33.95181 8.927059
2006-05-17 08:26:42 51°14.475 2°48.534 13.7364 4.074814 33.960557 8.893349
2006-05-17 08:26:48 51°14.478 2°48.54 13.7371 4.074814 33.960557 8.893349
2006-05-17 08:26:53 51°14.481 2°48.545 13.7357 4.077133 33.980093 8.927059
2006-05-17 08:26:58 51°14.483 2°48.55 13.7334 4.072917 33.940184 8.893349
2006-05-17 08:27:03 51°14.485 2°48.555 13.7328 4.076395 33.972547 8.893349
2006-05-17 08:27:08 51°14.487 2°48.56 13.7278 4.076606 33.973828 8.82593
2006-05-17 08:27:13 51°14.49 2°48.566 13.7289 4.078503 33.991482 8.85964
2006-05-17 08:27:18 51°14.492 2°48.571 13.7316 4.072601 33.936562 8.85964
2006-05-17 08:27:24 51°14.495 2°48.577 13.7326 4.072601 33.936562 8.85964
2006-05-17 08:27:28 51°14.497 2°48.581 13.7306 4.07629 33.970205 8.893349
2006-05-17 08:27:33 51°14.499 2°48.586 13.7359 4.072706 33.938223 8.85964
2006-05-17 08:27:38 51°14.502 2°48.592 13.7344 4.076922 33.978812 8.893349
2006-05-17 08:27:42 51°14.503 2°48.596 13.7347 4.076817 33.980555 8.927059
2006-05-17 08:27:48 51°14.506 2°48.602 13.7376 4.076606 33.978593 8.893349
2006-05-17 08:27:53 51°14.508 2°48.608 13.7426 4.076606 33.978593 8.893349
2006-05-17 08:27:58 51°14.51 2°48.613 13.7459 4.076501 33.976931 8.893349
2006-05-17 08:28:03 51°14.513 2°48.618 13.7461 4.077344 33.985459 8.893349
2006-05-17 08:28:08 51°14.515 2°48.624 13.7486 4.07629 33.973608 8.927059
2006-05-17 08:28:12 51°14.516 2°48.628 13.7489 4.07513 33.960778 8.927059
2006-05-17 08:28:18 51°14.519 2°48.634 13.7487 4.075341 33.9641 8.960768
2006-05-17 08:28:23 51°14.521 2°48.64 13.75 4.075341 33.9641 8.960768
2006-05-17 08:28:28 51°14.523 2°48.645 13.7496 4.072285 33.93362 8.893349
2006-05-17 08:28:33 51°14.525 2°48.651 13.75 4.074287 33.948172 8.927059
2006-05-17 08:28:38 51°14.527 2°48.656 13.7469 4.075973 33.96114 8.893349
2006-05-17 08:28:41 51°14.529 2°48.66 13.7417 4.074814 33.948994 8.927059
2006-05-17 08:28:48 51°14.531 2°48.667 13.7468 4.074814 33.948994 8.927059
2006-05-17 08:28:53 51°14.533 2°48.673 13.7388 4.075657 33.955478 8.927059
2006-05-17 08:28:58 51°14.535 2°48.679 13.7404 4.069544 33.897941 8.893349
2006-05-17 08:29:01 51°14.537 2°48.682 13.7324 4.069755 33.899901 8.927059
2006-05-17 08:29:07 51°14.539 2°48.688 13.7385 4.07629 33.96068 8.927059
2006-05-17 08:29:14 51°14.542 2°48.696 13.7378 4.072179 33.922446 8.927059
2006-05-17 08:29:18 51°14.543 2°48.7 13.7412 4.073549 33.937909 8.893349
2006-05-17 08:29:24 51°14.545 2°48.707 13.7452 4.073549 33.937909 8.893349
2006-05-17 08:29:27 51°14.547 2°48.71 13.7483 4.07102 33.91438 8.893349
2006-05-17 08:29:33 51°14.549 2°48.717 13.7504 4.076501 33.968083 8.927059
2006-05-17 08:29:38 51°14.551 2°48.722 13.755 4.075552 33.960619 8.960768
2006-05-17 08:29:43 51°14.553 2°48.728 13.7565 4.07629 33.968844 8.893349
2006-05-17 08:29:48 51°14.555 2°48.733 13.7624 4.075447 33.961679 8.85964
2006-05-17 08:29:53 51°14.557 2°48.738 13.7635 4.075447 33.961679 8.85964
2006-05-17 08:29:58 51°14.559 2°48.743 13.7675 4.072917 33.936105 8.82593
2006-05-17 08:30:03 51°14.562 2°48.749 13.77 4.075973 33.96182 8.82593
2006-05-17 08:30:08 51°14.564 2°48.754 13.7678 4.075657 33.956158 8.792221
2006-05-17 08:30:13 51°14.566 2°48.759 13.763 4.075446 33.951477 8.758512
2006-05-17 08:30:18 51°14.568 2°48.764 13.7609 4.073128 33.925834 8.758512
2006-05-17 08:30:23 51°14.57 2°48.77 13.7597 4.073128 33.925834 8.758512
2006-05-17 08:30:28 51°14.572 2°48.775 13.7568 4.072495 33.916557 8.758512
2006-05-17 08:30:34 51°14.575 2°48.781 13.7548 4.074603 33.934121 8.691093
2006-05-17 08:30:38 51°14.577 2°48.786 13.7533 4.073338 33.918965 8.724802
2006-05-17 08:30:41 51°14.578 2°48.789 13.7528 4.073549 33.919567 8.758512
2006-05-17 08:30:47 51°14.58 2°48.795 13.7545 4.074287 33.925747 8.724802
2006-05-17 08:30:53 51°14.583 2°48.801 13.7554 4.074287 33.925747 8.724802
2006-05-17 08:30:58 51°14.585 2°48.807 13.7576 4.074603 33.932762 8.792221
2006-05-17 08:31:02 51°14.587 2°48.811 13.7584 4.074603 33.933441 8.758512
2006-05-17 08:31:08 51°14.589 2°48.817 13.7602 4.074919 33.93774 8.82593
2006-05-17 08:31:14 51°14.592 2°48.824 13.7644 4.074919 33.940458 8.82593
2006-05-17 08:31:18 51°14.594 2°48.828 13.7647 4.07239 33.918973 8.82593
2006-05-17 08:31:23 51°14.595 2°48.833 13.7685 4.07239 33.918973 8.82593
2006-05-17 08:31:28 51°14.598 2°48.839 13.7711 4.075552 33.948378 8.82593
2006-05-17 08:31:33 51°14.599 2°48.844 13.7697 4.075446 33.946039 8.82593
2006-05-17 08:31:38 51°14.602 2°48.849 13.7738 4.075657 33.947319 8.85964
2006-05-17 08:31:42 51°14.603 2°48.854 13.78 4.071336 33.905099 8.82593
2006-05-17 08:31:48 51°14.606 2°48.86 13.7836 4.074919 33.937061 8.792221
2006-05-17 08:31:53 51°14.608 2°48.865 13.7847 4.074919 33.937061 8.792221
2006-05-17 08:31:58 51°14.61 2°48.87 13.7823 4.074498 33.929744 8.82593
2006-05-17 08:32:04 51°14.613 2°48.877 13.7781 4.074392 33.927406 8.85964
2006-05-17 08:32:08 51°14.614 2°48.881 13.7766 4.074181 33.924088 8.82593
2006-05-17 08:32:13 51°14.616 2°48.887 13.781 4.073971 33.920771 8.792221
2006-05-17 08:32:18 51°14.618 2°48.892 13.792 4.073971 33.920771 8.792221
2006-05-17 08:32:23 51°14.621 2°48.897 13.7937 4.074076 33.917678 8.82593
2006-05-17 08:32:29 51°14.623 2°48.904 13.79 4.073338 33.906749 8.792221
2006-05-17 08:32:33 51°14.625 2°48.908 13.7865 4.073865 33.908933 8.792221
2006-05-17 08:32:38 51°14.627 2°48.913 13.7883 4.074181 33.913228 8.82593
2006-05-17 08:32:42 51°14.628 2°48.918 13.7889 4.074076 33.913606 8.82593
2006-05-17 08:32:49 51°14.631 2°48.925 13.7853 4.074287 33.914208 8.792221
2006-05-17 08:32:53 51°14.633 2°48.93 13.782 4.074287 33.914208 8.792221
2006-05-17 08:32:58 51°14.635 2°48.935 13.7861 4.073865 33.90622 8.792221
2006-05-17 08:33:02 51°14.637 2°48.94 13.7829 4.074076 33.904109 8.792221
2006-05-17 08:33:08 51°14.64 2°48.947 13.7884 4.074076 33.905465 8.82593
2006-05-17 08:33:14 51°14.643 2°48.954 13.7834 4.074076 33.905465 8.82593
2006-05-17 08:33:18 51°14.644 2°48.959 13.7817 4.074603 33.910362 8.82593
2006-05-17 08:33:23 51°14.647 2°48.964 13.7799 4.074603 33.910362 8.82593
2006-05-17 08:33:28 51°14.648 2°48.97 13.7811 4.074919 33.913979 8.85964
2006-05-17 08:33:33 51°14.651 2°48.976 13.7767 4.07513 33.917973 8.82593
2006-05-17 08:33:38 51°14.653 2°48.982 13.7784 4.074814 33.915713 8.82593
2006-05-17 08:33:43 51°14.655 2°48.988 13.777 4.074814 33.915034 8.82593
2006-05-17 08:33:48 51°14.658 2°48.994 13.7777 4.074919 33.916692 8.82593
2006-05-17 08:33:53 51°14.66 2°49 13.784 4.074919 33.916692 8.82593
2006-05-17 08:33:58 51°14.662 2°49.006 13.7858 4.07513 33.91933 8.85964
2006-05-17 08:34:04 51°14.665 2°49.014 13.7856 4.075446 33.923626 8.85964
2006-05-17 08:34:08 51°14.667 2°49.018 13.7835 4.075341 33.923325 8.85964
2006-05-17 08:34:13 51°14.669 2°49.024 13.7813 4.075341 33.924682 8.85964
2006-05-17 08:34:18 51°14.672 2°49.03 13.7841 4.075235 33.92506 8.85964
2006-05-17 08:34:23 51°14.674 2°49.036 13.7847 4.075235 33.92506 8.85964
2006-05-17 08:34:28 51°14.676 2°49.042 13.7854 4.075657 33.926942 8.85964
2006-05-17 08:34:33 51°14.678 2°49.049 13.783 4.075024 33.919707 8.82593
2006-05-17 08:34:38 51°14.681 2°49.055 13.7818 4.075341 33.921289 8.82593
2006-05-17 08:34:43 51°14.683 2°49.061 13.7784 4.075341 33.92061 8.85964
2006-05-17 08:34:49 51°14.685 2°49.068 13.7791 4.075341 33.92061 8.82593
2006-05-17 08:34:53 51°14.687 2°49.073 13.7814 4.075341 33.92061 8.82593
2006-05-17 08:34:57 51°14.689 2°49.078 13.7827 4.075341 33.921289 8.85964
2006-05-17 08:35:04 51°14.692 2°49.086 13.7854 4.075235 33.920309 8.85964
2006-05-17 08:35:08 51°14.694 2°49.091 13.7906 4.075341 33.919932 8.85964
2006-05-17 08:35:14 51°14.696 2°49.099 13.7903 4.07513 33.91933 8.85964
2006-05-17 08:35:19 51°14.698 2°49.105 13.7914 4.075341 33.924004 8.85964
2006-05-17 08:35:23 51°14.7 2°49.11 13.7872 4.075341 33.924004 8.85964
2006-05-17 08:35:28 51°14.702 2°49.116 13.7902 4.075024 33.921065 8.893349
2006-05-17 08:35:33 51°14.704 2°49.122 13.7906 4.07513 33.920008 8.893349
2006-05-17 08:35:38 51°14.706 2°49.128 13.792 4.074814 33.916391 8.85964
2006-05-17 08:35:43 51°14.709 2°49.135 13.7982 4.074497 33.910739 8.82593
2006-05-17 08:35:48 51°14.711 2°49.141 13.8047 4.07376 33.901849 8.85964
2006-05-17 08:35:54 51°14.713 2°49.148 13.8044 4.07376 33.901849 8.85964
2006-05-17 08:35:58 51°14.715 2°49.153 13.7987 4.073865 33.90215 8.85964
2006-05-17 08:36:02 51°14.717 2°49.158 13.7996 4.07397 33.90313 8.85964
2006-05-17 08:36:08 51°14.719 2°49.166 13.8033 4.074076 33.902753 8.893349
2006-05-17 08:36:13 51°14.721 2°49.172 13.8073 4.073549 33.897857 8.85964
2006-05-17 08:36:18 51°14.723 2°49.178 13.8061 4.073549 33.893789 8.792221
2006-05-17 08:36:22 51°14.725 2°49.183 13.8068 4.073549 33.893789 8.792221
2006-05-17 08:36:27 51°14.727 2°49.189 13.8085 4.073338 33.889798 8.85964
2006-05-17 08:36:32 51°14.729 2°49.196 13.8049 4.073443 33.888066 8.85964
2006-05-17 08:36:37 51°14.731 2°49.202 13.8 4.073338 33.887765 8.85964
2006-05-17 08:36:44 51°14.734 2°49.21 13.8014 4.072916 33.883172 8.82593
2006-05-17 08:36:48 51°14.736 2°49.215 13.8015 4.072916 33.881817 8.82593
2006-05-17 08:36:53 51°14.738 2°49.221 13.7991 4.072916 33.881817 8.82593
2006-05-17 08:36:58 51°14.74 2°49.228 13.8003 4.072811 33.878806 8.82593
2006-05-17 08:37:03 51°14.742 2°49.234 13.8017 4.072495 33.875192 8.792221
2006-05-17 08:37:07 51°14.744 2°49.239 13.8053 4.0726 33.875493 8.82593
2006-05-17 08:37:14 51°14.747 2°49.248 13.8062 4.072284 33.874589 8.85964
2006-05-17 08:37:17 51°14.748 2°49.251 13.8083 4.073022 33.882796 8.893349
2006-05-17 08:37:23 51°14.751 2°49.259 13.8066 4.073022 33.882796 8.893349
2006-05-17 08:37:28 51°14.753 2°49.265 13.8093 4.0726 33.880912 8.893349
2006-05-17 08:37:34 51°14.755 2°49.272 13.812 4.072705 33.881891 8.893349
2006-05-17 08:37:39 51°14.757 2°49.279 13.8125 4.072495 33.877901 8.893349
2006-05-17 08:37:43 51°14.759 2°49.284 13.806 4.072495 33.877901 8.85964
2006-05-17 08:37:48 51°14.761 2°49.29 13.8088 4.072178 33.872933 8.85964
2006-05-17 08:37:54 51°14.764 2°49.297 13.8105 4.072178 33.872933 8.85964
2006-05-17 08:37:57 51°14.765 2°49.301 13.8164 4.071757 33.867663 8.85964
2006-05-17 08:38:02 51°14.767 2°49.307 13.8177 4.071862 33.867965 8.85964
2006-05-17 08:38:08 51°14.77 2°49.314 13.8262 4.071335 33.862394 8.85964
2006-05-17 08:38:13 51°14.772 2°49.32 13.8326 4.071019 33.858105 8.85964
2006-05-17 08:38:17 51°14.774 2°49.326 13.8305 4.071019 33.858781 8.85964
2006-05-17 08:38:24 51°14.776 2°49.334 13.8292 4.071019 33.858781 8.85964
2006-05-17 08:38:28 51°14.778 2°49.339 13.827 4.07123 33.861416 8.85964
2006-05-17 08:38:33 51°14.78 2°49.345 13.8228 4.071124 33.85773 8.85964
2006-05-17 08:38:37 51°14.782 2°49.35 13.8183 4.070386 33.84885 8.82593
2006-05-17 08:38:44 51°14.785 2°49.359 13.8188 4.069965 33.840201 8.792221
2006-05-17 08:38:48 51°14.787 2°49.364 13.8194 4.069438 33.831253 8.792221
2006-05-17 08:38:53 51°14.789 2°49.371 13.8211 4.069438 33.831253 8.792221
2006-05-17 08:38:58 51°14.791 2°49.377 13.8196 4.069859 33.832462 8.82593
2006-05-17 08:39:04 51°14.793 2°49.384 13.8235 4.069543 33.830204 8.82593
2006-05-17 08:39:07 51°14.794 2°49.388 13.826 4.069332 33.828247 8.85964
2006-05-17 08:39:13 51°14.797 2°49.395 13.824 4.069332 33.830275 8.85964
2006-05-17 08:39:18 51°14.799 2°49.401 13.8256 4.069016 33.830044 8.893349
2006-05-17 08:39:24 51°14.801 2°49.408 13.8265 4.069016 33.830044 8.893349
2006-05-17 08:39:28 51°14.803 2°49.413 13.827 4.068805 33.828764 8.85964
2006-05-17 08:39:33 51°14.805 2°49.419 13.8218 4.068805 33.828088 8.85964
2006-05-17 08:39:38 51°14.807 2°49.425 13.822 4.068278 33.82252 8.85964
2006-05-17 08:39:43 51°14.809 2°49.43 13.8227 4.068911 33.826362 8.82593
2006-05-17 08:39:47 51°14.81 2°49.435 13.8238 4.068805 33.82606 8.82593
2006-05-17 08:39:54 51°14.813 2°49.443 13.8172 4.068805 33.82606 8.82593
2006-05-17 08:39:58 51°14.814 2°49.448 13.8164 4.068911 33.82501 8.85964
2006-05-17 08:40:03 51°14.816 2°49.453 13.816 4.068595 33.8214 8.85964
2006-05-17 08:40:08 51°14.818 2°49.459 13.8164 4.069016 33.826664 8.893349
2006-05-17 08:40:14 51°14.82 2°49.466 13.812 4.069016 33.82734 8.893349
2006-05-17 08:40:18 51°14.822 2°49.47 13.8162 4.069227 33.829297 8.893349
2006-05-17 08:40:22 51°14.823 2°49.475 13.8293 4.069227 33.829297 8.893349
2006-05-17 08:40:28 51°14.825 2°49.482 13.8313 4.069438 33.831929 8.893349
2006-05-17 08:40:33 51°14.827 2°49.487 13.8383 4.069332 33.833655 8.927059
2006-05-17 08:40:38 51°14.829 2°49.493 13.8418 4.069438 33.835986 8.893349
2006-05-17 08:40:43 51°14.831 2°49.499 13.8334 4.069543 33.838993 8.927059
2006-05-17 08:40:48 51°14.832 2°49.504 13.8343 4.069438 33.838691 8.960768
2006-05-17 08:40:54 51°14.834 2°49.511 13.8356 4.069438 33.838691 8.960768
2006-05-17 08:40:57 51°14.835 2°49.514 13.8424 4.069543 33.83764 8.893349